| time (UTC) | temp F | wind direction | speed knots | gust knots | rain 1hr in | rain 24hr in | rain mn in | humidity % | barometer mb |
| 20260504195016 | 74 | 216 | 4.3 | 7.8 | 0.00 | 0.00 | 0.00 | 34 | 1010.1 |
| 20260504194927 | 74 | 204 | 4.3 | 7.8 | 0.00 | 0.00 | 0.00 | 35 | 1010.3 |
| 20260504194823 | 74 | 251 | 2.6 | 3.5 | 0.00 | 0.00 | 0.00 | 34 | 1010.1 |
| 20260504194718 | 74 | 206 | 4.3 | 5.2 | 0.00 | 0.00 | 0.00 | 35 | 1010.1 |
| 20260504194630 | 74 | 198 | 4.3 | 7.0 | 0.00 | 0.00 | 0.00 | 33 | 1010.2 |
| 20260504194526 | 73 | 204 | 1.7 | 3.5 | 0.00 | 0.00 | 0.00 | 34 | 1010.2 |
| 20260504194421 | 73 | 220 | 3.5 | 5.2 | 0.00 | 0.00 | 0.00 | 35 | 1010.1 |
| 20260504194317 | 73 | 206 | 3.5 | 6.1 | 0.00 | 0.00 | 0.00 | 34 | 1010.1 |
| 20260504194228 | 73 | 276 | 2.6 | 6.1 | 0.00 | 0.00 | 0.00 | 34 | 1010.1 |
| 20260504194124 | 73 | 202 | 4.3 | 7.8 | 0.00 | 0.00 | 0.00 | 36 | 1010.0 |
| 20260504194019 | 74 | 197 | 5.2 | 8.7 | 0.00 | 0.00 | 0.00 | 34 | 1010.1 |
| 20260504193915 | 74 | 216 | 3.5 | 6.1 | 0.00 | 0.00 | 0.00 | 34 | 1010.2 |
| 20260504193827 | 74 | 210 | 4.3 | 7.0 | 0.00 | 0.00 | 0.00 | 34 | 1010.1 |
| 20260504193722 | 74 | 210 | 4.3 | 7.8 | 0.00 | 0.00 | 0.00 | 34 | 1010.1 |
| 20260504193618 | 74 | 212 | 4.3 | 6.1 | 0.00 | 0.00 | 0.00 | 35 | 1010.2 |
| 20260504193530 | 74 | 208 | 4.3 | 7.8 | 0.00 | 0.00 | 0.00 | 36 | 1010.1 |
| 20260504193445 | 74 | 276 | 1.7 | 3.5 | 0.00 | 0.00 | 0.00 | 34 | 1010.2 |
| 20260504193321 | 74 | 197 | 2.6 | 3.5 | 0.00 | 0.00 | 0.00 | 33 | 1010.2 |
| 20260504193216 | 74 | 202 | 2.6 | 4.3 | 0.00 | 0.00 | 0.00 | 33 | 1010.2 |
| 20260504193128 | 73 | 192 | 1.7 | 2.6 | 0.00 | 0.00 | 0.00 | 34 | 1010.2 |
| 20260504193024 | 73 | 256 | 2.6 | 3.5 | 0.00 | 0.00 | 0.00 | 36 | 1010.3 |
| 20260504192919 | 73 | 250 | 1.7 | 3.5 | 0.00 | 0.00 | 0.00 | 34 | 1010.3 |
| 20260504192831 | 73 | 291 | 2.6 | 5.2 | 0.00 | 0.00 | 0.00 | 34 | 1010.2 |
| 20260504192746 | 73 | 212 | 2.6 | 5.2 | 0.00 | 0.00 | 0.00 | 35 | 1010.2 |
| 20260504192622 | 73 | 199 | 4.3 | 7.0 | 0.00 | 0.00 | 0.00 | 33 | 1010.2 |
| 20260504192517 | 74 | 189 | 6.1 | 7.8 | 0.00 | 0.00 | 0.00 | 32 | 1010.2 |
| 20260504192429 | 74 | 220 | 4.3 | 7.0 | 0.00 | 0.00 | 0.00 | 34 | 1010.5 |
| 20260504192325 | 74 | 197 | 2.6 | 4.3 | 0.00 | 0.00 | 0.00 | 35 | 1010.2 |
| 20260504192240 | 74 | 247 | 2.6 | 5.2 | 0.00 | 0.00 | 0.00 | 35 | 1010.5 |
| 20260504192116 | 73 | 222 | 3.5 | 7.0 | 0.00 | 0.00 | 0.00 | 35 | 1010.4 |
| 20260504192048 | 73 | 210 | 2.6 | 3.5 | 0.00 | 0.00 | 0.00 | 36 | 1010.5 |
| 20260504191943 | 73 | 236 | 2.6 | 5.2 | 0.00 | 0.00 | 0.00 | 34 | 1010.3 |
| 20260504191819 | 73 | 254 | 3.5 | 4.3 | 0.00 | 0.00 | 0.00 | 35 | 1010.2 |
| 20260504191731 | 73 | 195 | 4.3 | 5.2 | 0.00 | 0.00 | 0.00 | 34 | 1010.4 |
| 20260504191646 | 73 | 248 | 2.6 | 6.1 | 0.00 | 0.00 | 0.00 | 34 | 1010.3 |
| 20260504191522 | 73 | 200 | 5.2 | 7.8 | 0.00 | 0.00 | 0.00 | 34 | 1010.2 |
| 20260504191417 | 73 | 211 | 6.1 | 10.4 | 0.00 | 0.00 | 0.00 | 35 | 1010.4 |
| 20260504191349 | 74 | 197 | 4.3 | 7.8 | 0.00 | 0.00 | 0.00 | 34 | 1010.6 |
| 20260504191225 | 74 | 216 | 4.3 | 11.3 | 0.00 | 0.00 | 0.00 | 33 | 1010.6 |
| 20260504191120 | 74 | 232 | 2.6 | 3.5 | 0.00 | 0.00 | 0.00 | 36 | 1010.7 |
| 20260504191016 | 74 | 193 | 1.7 | 3.5 | 0.00 | 0.00 | 0.00 | 34 | 1010.6 |
| 20260504190928 | 74 | 286 | 1.7 | 6.1 | 0.00 | 0.00 | 0.00 | 34 | 1010.4 |
| 20260504190823 | 74 | 312 | 2.6 | 7.0 | 0.00 | 0.00 | 0.00 | 33 | 1010.4 |
| 20260504190719 | 73 | 219 | 2.6 | 6.1 | 0.00 | 0.00 | 0.00 | 33 | 1010.5 |
| 20260504190630 | 73 | 273 | 2.6 | 7.8 | 0.00 | 0.00 | 0.00 | 33 | 1010.6 |
| 20260504190526 | 73 | 232 | 2.6 | 3.5 | 0.00 | 0.00 | 0.00 | 34 | 1010.4 |
| 20260504190421 | 73 | 229 | 2.6 | 7.0 | 0.00 | 0.00 | 0.00 | 34 | 1010.6 |
| 20260504190357 | 73 | 195 | 5.2 | 7.8 | 0.00 | 0.00 | 0.00 | 34 | 1010.7 |
| 20260504190229 | 73 | 204 | 5.2 | 7.0 | 0.00 | 0.00 | 0.00 | 34 | 1010.7 |
| 20260504190144 | 73 | 197 | 6.1 | 11.3 | 0.00 | 0.00 | 0.00 | 34 | 1010.6 |
| 20260504190020 | 73 | 197 | 4.3 | 7.8 | 0.00 | 0.00 | 0.00 | 35 | 1010.5 |
| 20260504185915 | 73 | 189 | 4.3 | 5.2 | 0.00 | 0.00 | 0.00 | 36 | 1010.6 |
| 20260504185827 | 73 | 167 | 1.7 | 3.5 | 0.00 | 0.00 | 0.00 | 35 | 1010.5 |
| 20260504185723 | 73 | 222 | 3.5 | 5.2 | 0.00 | 0.00 | 0.00 | 35 | 1010.6 |
| 20260504185618 | 73 | 199 | 2.6 | 4.3 | 0.00 | 0.00 | 0.00 | 37 | 1010.7 |
| 20260504185530 | 72 | 207 | 3.5 | 4.3 | 0.00 | 0.00 | 0.00 | 37 | 1010.6 |
| 20260504185425 | 72 | 211 | 4.3 | 6.1 | 0.00 | 0.00 | 0.00 | 35 | 1010.9 |
| 20260504185321 | 72 | 211 | 2.6 | 4.3 | 0.00 | 0.00 | 0.00 | 37 | 1010.7 |
| 20260504185236 | 72 | 206 | 3.5 | 6.1 | 0.00 | 0.00 | 0.00 | 35 | 1010.8 |
| 20260504185128 | 72 | 203 | 4.3 | 6.1 | 0.00 | 0.00 | 0.00 | 35 | 1011.0 |
| 20260504185024 | 73 | 201 | 7.0 | 11.3 | 0.00 | 0.00 | 0.00 | 35 | 1011.0 |
| 20260504184919 | 73 | 226 | 5.2 | 7.8 | 0.00 | 0.00 | 0.00 | 35 | 1010.8 |
| 20260504184831 | 73 | 200 | 4.3 | 7.0 | 0.00 | 0.00 | 0.00 | 36 | 1010.9 |
| 20260504184726 | 73 | 210 | 2.6 | 6.1 | 0.00 | 0.00 | 0.00 | 34 | 1010.9 |
| 20260504184622 | 72 | 215 | 3.5 | 5.2 | 0.00 | 0.00 | 0.00 | 37 | 1010.9 |
| 20260504184517 | 72 | 213 | 4.3 | 6.1 | 0.00 | 0.00 | 0.00 | 35 | 1010.9 |
| 20260504184429 | 72 | 197 | 5.2 | 6.1 | 0.00 | 0.00 | 0.00 | 35 | 1011.0 |
| 20260504184325 | 72 | 194 | 7.0 | 11.3 | 0.00 | 0.00 | 0.00 | 34 | 1011.1 |
| 20260504184221 | 72 | 206 | 4.3 | 8.7 | 0.00 | 0.00 | 0.00 | 35 | 1011.0 |
| 20260504184116 | 72 | 207 | 3.5 | 6.1 | 0.00 | 0.00 | 0.00 | 36 | 1010.9 |
| 20260504184028 | 72 | 201 | 3.5 | 6.1 | 0.00 | 0.00 | 0.00 | 36 | 1010.9 |
| 20260504184003 | 72 | 218 | 3.5 | 7.0 | 0.00 | 0.00 | 0.00 | 35 | 1010.9 |
| 20260504183819 | 72 | 206 | 5.2 | 10.4 | 0.00 | 0.00 | 0.00 | 34 | 1011.2 |
| 20260504183730 | 72 | 211 | 5.2 | 9.6 | 0.00 | 0.00 | 0.00 | 34 | 1011.1 |
| 20260504183626 | 73 | 232 | 4.3 | 5.2 | 0.00 | 0.00 | 0.00 | 35 | 1011.0 |
| 20260504183522 | 73 | 204 | 3.5 | 4.3 | 0.00 | 0.00 | 0.00 | 34 | 1011.1 |
| 20260504183437 | 72 | 217 | 2.6 | 4.3 | 0.00 | 0.00 | 0.00 | 36 | 1011.1 |
| 20260504183329 | 72 | 210 | 3.5 | 5.2 | 0.00 | 0.00 | 0.00 | 35 | 1010.9 |
| 20260504183224 | 72 | 206 | 4.3 | 6.1 | 0.00 | 0.00 | 0.00 | 35 | 1011.2 |
| 20260504183120 | 72 | 212 | 4.3 | 6.1 | 0.00 | 0.00 | 0.00 | 34 | 1011.2 |
| 20260504183036 | 72 | 253 | 2.6 | 5.2 | 0.00 | 0.00 | 0.00 | 33 | 1011.2 |
| 20260504182928 | 73 | 228 | 4.3 | 10.4 | 0.00 | 0.00 | 0.00 | 33 | 1011.1 |
| 20260504182823 | 73 | 194 | 3.5 | 5.2 | 0.00 | 0.00 | 0.00 | 35 | 1011.0 |
| 20260504182719 | 73 | 172 | 2.6 | 3.5 | 0.00 | 0.00 | 0.00 | 35 | 1011.2 |
| 20260504182630 | 73 | 257 | 3.5 | 8.7 | 0.00 | 0.00 | 0.00 | 34 | 1011.1 |
| 20260504182526 | 73 | 216 | 3.5 | 6.1 | 0.00 | 0.00 | 0.00 | 36 | 1011.2 |
| 20260504182422 | 72 | 226 | 2.6 | 4.3 | 0.00 | 0.00 | 0.00 | 36 | 1011.2 |
| 20260504182317 | 73 | 208 | 2.6 | 7.8 | 0.00 | 0.00 | 0.00 | 35 | 1011.1 |
| 20260504182229 | 72 | 197 | 4.3 | 10.4 | 0.00 | 0.00 | 0.00 | 35 | 1011.2 |
| 20260504182124 | 72 | 241 | 2.6 | 4.3 | 0.00 | 0.00 | 0.00 | 37 | 1011.1 |
| 20260504182020 | 72 | 208 | 4.3 | 7.0 | 0.00 | 0.00 | 0.00 | 37 | 1011.1 |
| 20260504181936 | 72 | 202 | 6.1 | 10.4 | 0.00 | 0.00 | 0.00 | 35 | 1011.2 |
| 20260504181907 | 72 | 193 | 5.2 | 7.8 | 0.00 | 0.00 | 0.00 | 35 | 1011.0 |
| 20260504181723 | 72 | 191 | 5.2 | 7.8 | 0.00 | 0.00 | 0.00 | 35 | 1011.4 |
| 20260504181618 | 72 | 190 | 1.7 | 2.6 | 0.00 | 0.00 | 0.00 | 37 | 1011.3 |
| 20260504181530 | 72 | 196 | 3.5 | 8.7 | 0.00 | 0.00 | 0.00 | 36 | 1011.5 |
| 20260504181425 | 72 | 199 | 5.2 | 8.7 | 0.00 | 0.00 | 0.00 | 35 | 1011.3 |
| 20260504181321 | 71 | 277 | 2.6 | 5.2 | 0.00 | 0.00 | 0.00 | 35 | 1011.4 |
| 20260504181216 | 72 | 204 | 7.8 | 14.8 | 0.00 | 0.00 | 0.00 | 35 | 1011.3 |
| 20260504181148 | 71 | 280 | 5.2 | 10.4 | 0.00 | 0.00 | 0.00 | 35 | 1011.3 |
| 20260504181024 | 71 | 188 | 3.5 | 11.3 | 0.00 | 0.00 | 0.00 | 35 | 1011.3 |
| 20260504180919 | 71 | 194 | 6.1 | 12.2 | 0.00 | 0.00 | 0.00 | 34 | 1011.2 |
| 20260504180831 | 71 | 207 | 2.6 | 4.3 | 0.00 | 0.00 | 0.00 | 35 | 1011.4 |
| 20260504180727 | 72 | 198 | 5.2 | 7.8 | 0.00 | 0.00 | 0.00 | 34 | 1011.4 |
| 20260504180642 | 72 | 188 | 4.3 | 7.0 | 0.00 | 0.00 | 0.00 | 35 | 1011.5 |
| 20260504180518 | 71 | 213 | 2.6 | 5.2 | 0.00 | 0.00 | 0.00 | 36 | 1011.4 |
| 20260504180429 | 71 | 270 | 0.9 | 3.5 | 0.00 | 0.00 | 0.00 | 34 | 1011.4 |
| 20260504180325 | 71 | 269 | 1.7 | 5.2 | 0.00 | 0.00 | 0.00 | 35 | 1011.3 |
| 20260504180221 | 71 | 190 | 4.3 | 8.7 | 0.00 | 0.00 | 0.00 | 35 | 1011.5 |
| 20260504180116 | 71 | 199 | 5.2 | 7.0 | 0.00 | 0.00 | 0.00 | 35 | 1011.4 |
| 20260504180028 | 71 | 194 | 2.6 | 5.2 | 0.00 | 0.00 | 0.00 | 36 | 1011.7 |
| 20260504175923 | 71 | 196 | 4.3 | 7.0 | 0.00 | 0.00 | 0.00 | 37 | 1011.4 |
| 20260504175819 | 71 | 198 | 7.0 | 10.4 | 0.00 | 0.00 | 0.00 | 34 | 1011.4 |
| 20260504175730 | 71 | 196 | 5.2 | 8.7 | 0.00 | 0.00 | 0.00 | 36 | 1011.6 |
| 20260504175625 | 72 | 203 | 5.2 | 11.3 | 0.00 | 0.00 | 0.00 | 35 | 1011.4 |
| 20260504175521 | 72 | 201 | 4.3 | 7.8 | 0.00 | 0.00 | 0.00 | 34 | 1011.4 |
| 20260504175417 | 72 | 208 | 3.5 | 4.3 | 0.00 | 0.00 | 0.00 | 37 | 1011.6 |
| 20260504175328 | 71 | 202 | 1.7 | 5.2 | 0.00 | 0.00 | 0.00 | 36 | 1011.6 |
| 20260504175224 | 71 | 307 | 3.5 | 6.1 | 0.00 | 0.00 | 0.00 | 35 | 1011.6 |
| 20260504175119 | 71 | 324 | 2.6 | 7.0 | 0.00 | 0.00 | 0.00 | 36 | 1011.7 |
| 20260504175031 | 71 | 208 | 5.2 | 7.8 | 0.00 | 0.00 | 0.00 | 36 | 1011.8 |
| 20260504174926 | 71 | 189 | 5.2 | 8.7 | 0.00 | 0.00 | 0.00 | 35 | 1011.8 |
| 20260504174822 | 71 | 206 | 4.3 | 10.4 | 0.00 | 0.00 | 0.00 | 36 | 1011.8 |
| 20260504174720 | 71 | 214 | 5.2 | 7.8 | 0.00 | 0.00 | 0.00 | 34 | 1011.7 |
| 20260504174649 | 71 | 203 | 5.2 | 7.0 | 0.00 | 0.00 | 0.00 | 35 | 1011.7 |
| 20260504174525 | 72 | 214 | 4.3 | 7.0 | 0.00 | 0.00 | 0.00 | 34 | 1011.7 |
| 20260504174420 | 72 | 280 | 0.9 | 4.3 | 0.00 | 0.00 | 0.00 | 34 | 1011.8 |
| 20260504174316 | 72 | 194 | 2.6 | 5.2 | 0.00 | 0.00 | 0.00 | 37 | 1011.7 |
| 20260504174247 | 72 | 205 | 4.3 | 8.7 | 0.00 | 0.00 | 0.00 | 36 | 1011.8 |
| 20260504174123 | 72 | 250 | 3.5 | 7.8 | 0.00 | 0.00 | 0.00 | 35 | 1011.7 |
| 20260504174019 | 72 | 238 | 2.6 | 4.3 | 0.00 | 0.00 | 0.00 | 37 | 1011.9 |
| 20260504173930 | 72 | 285 | 4.3 | 5.2 | 0.00 | 0.00 | 0.00 | 38 | 1011.8 |
| 20260504173825 | 72 | 205 | 3.5 | 4.3 | 0.00 | 0.00 | 0.00 | 37 | 1011.8 |
| 20260504173721 | 71 | 194 | 3.5 | 3.5 | 0.00 | 0.00 | 0.00 | 38 | 1011.7 |
| 20260504173617 | 71 | 224 | 2.6 | 3.5 | 0.00 | 0.00 | 0.00 | 36 | 1011.7 |
| 20260504173528 | 71 | 220 | 3.5 | 7.0 | 0.00 | 0.00 | 0.00 | 36 | 1011.8 |
| 20260504173424 | 71 | 197 | 3.5 | 7.8 | 0.00 | 0.00 | 0.00 | 36 | 1011.8 |
| 20260504173320 | 71 | 201 | 2.6 | 4.3 | 0.00 | 0.00 | 0.00 | 37 | 1011.6 |
| 20260504173215 | 70 | 220 | 1.7 | 3.5 | 0.00 | 0.00 | 0.00 | 38 | 1011.8 |
| 20260504173147 | 70 | 221 | 1.7 | 5.2 | 0.00 | 0.00 | 0.00 | 37 | 1011.6 |
| 20260504173043 | 70 | 208 | 4.3 | 10.4 | 0.00 | 0.00 | 0.00 | 37 | 1011.8 |
| 20260504172918 | 70 | 205 | 5.2 | 9.6 | 0.00 | 0.00 | 0.00 | 38 | 1011.8 |
| 20260504172830 | 70 | 198 | 5.2 | 7.8 | 0.00 | 0.00 | 0.00 | 36 | 1011.7 |
| 20260504172725 | 70 | 218 | 4.3 | 7.0 | 0.00 | 0.00 | 0.00 | 36 | 1011.8 |
| 20260504172621 | 70 | 193 | 4.3 | 5.2 | 0.00 | 0.00 | 0.00 | 36 | 1011.9 |
| 20260504172537 | 70 | 229 | 5.2 | 12.2 | 0.00 | 0.00 | 0.00 | 35 | 1012.0 |
| 20260504172428 | 70 | 223 | 3.5 | 8.7 | 0.00 | 0.00 | 0.00 | 36 | 1012.0 |
| 20260504172324 | 70 | 215 | 5.2 | 9.6 | 0.00 | 0.00 | 0.00 | 36 | 1011.9 |
| 20260504172219 | 70 | 210 | 5.2 | 7.8 | 0.00 | 0.00 | 0.00 | 35 | 1011.7 |
| 20260504172151 | 71 | 203 | 4.3 | 6.1 | 0.00 | 0.00 | 0.00 | 34 | 1011.9 |
| 20260504172027 | 71 | 237 | 4.3 | 7.0 | 0.00 | 0.00 | 0.00 | 36 | 1012.0 |
| 20260504171922 | 71 | 198 | 4.3 | 7.0 | 0.00 | 0.00 | 0.00 | 37 | 1011.6 |
| 20260504171838 | 71 | 193 | 5.2 | 6.1 | 0.00 | 0.00 | 0.00 | 36 | 1011.8 |
| 20260504171809 | 71 | 229 | 0.9 | 5.2 | 0.00 | 0.00 | 0.00 | 36 | 1011.8 |
| 20260504171625 | 71 | 213 | 4.3 | 8.7 | 0.00 | 0.00 | 0.00 | 36 | 1011.9 |
| 20260504171521 | 71 | 205 | 3.5 | 7.8 | 0.00 | 0.00 | 0.00 | 38 | 1011.9 |
| 20260504171416 | 71 | 207 | 3.5 | 9.6 | 0.00 | 0.00 | 0.00 | 36 | 1012.0 |
| 20260504171328 | 71 | 10 | 2.6 | 5.2 | 0.00 | 0.00 | 0.00 | 36 | 1012.2 |
| 20260504171223 | 70 | 220 | 1.7 | 5.2 | 0.00 | 0.00 | 0.00 | 38 | 1012.1 |
| 20260504171119 | 70 | 24 | 2.6 | 5.2 | 0.00 | 0.00 | 0.00 | 37 | 1012.2 |
| 20260504171030 | 69 | 208 | 1.7 | 3.5 | 0.00 | 0.00 | 0.00 | 38 | 1012.0 |
| 20260504170926 | 69 | 245 | 4.3 | 6.1 | 0.00 | 0.00 | 0.00 | 37 | 1012.0 |
| 20260504170822 | 69 | 203 | 4.3 | 7.8 | 0.00 | 0.00 | 0.00 | 38 | 1012.1 |
| 20260504170717 | 69 | 196 | 5.2 | 7.0 | 0.00 | 0.00 | 0.00 | 37 | 1012.0 |
| 20260504170629 | 70 | 198 | 6.1 | 10.4 | 0.00 | 0.00 | 0.00 | 37 | 1012.0 |
| 20260504170525 | 69 | 196 | 3.5 | 8.7 | 0.00 | 0.00 | 0.00 | 37 | 1012.0 |
| 20260504170420 | 69 | 193 | 3.5 | 7.0 | 0.00 | 0.00 | 0.00 | 37 | 1012.0 |
| 20260504170336 | 69 | 200 | 3.5 | 5.2 | 0.00 | 0.00 | 0.00 | 39 | 1012.1 |
| 20260504170227 | 69 | 201 | 3.5 | 5.2 | 0.00 | 0.00 | 0.00 | 39 | 1012.2 |
| 20260504170143 | 69 | 192 | 6.1 | 11.3 | 0.00 | 0.00 | 0.00 | 36 | 1012.2 |
| 20260504160428 | 67 | 196 | 8.7 | 11.3 | 0.00 | 0.00 | 0.00 | 38 | 1013.1 |
| 20260504160323 | 67 | 205 | 6.1 | 9.6 | 0.00 | 0.00 | 0.00 | 38 | 1013.0 |
| 20260504160219 | 67 | 201 | 7.0 | 9.6 | 0.00 | 0.00 | 0.00 | 37 | 1013.1 |
| 20260504160131 | 67 | 196 | 7.0 | 9.6 | 0.00 | 0.00 | 0.00 | 37 | 1013.0 |
| 20260504151138 | 68 | 198 | 4.3 | 7.8 | 0.00 | 0.00 | 0.00 | 40 | 1013.3 |
| 20260504151030 | 67 | 291 | 1.7 | 3.5 | 0.00 | 0.00 | 0.00 | 40 | 1013.4 |
| 20260504150926 | 67 | 197 | 1.7 | 2.6 | 0.00 | 0.00 | 0.00 | 42 | 1013.5 |
| 20260504150821 | 66 | 226 | 1.7 | 4.3 | 0.00 | 0.00 | 0.00 | 40 | 1013.5 |
| 20260504150717 | 66 | 212 | 3.5 | 6.1 | 0.00 | 0.00 | 0.00 | 42 | 1013.4 |
| 20260504150648 | 66 | 196 | 4.3 | 5.2 | 0.00 | 0.00 | 0.00 | 41 | 1013.4 |
| 20260504150524 | 66 | 205 | 3.5 | 7.0 | 0.00 | 0.00 | 0.00 | 41 | 1013.5 |
| 20260504150420 | 65 | 185 | 5.2 | 11.3 | 0.00 | 0.00 | 0.00 | 40 | 1013.5 |
| 20260504150335 | 65 | 189 | 6.1 | 10.4 | 0.00 | 0.00 | 0.00 | 40 | 1013.5 |
| 20260504150227 | 65 | 191 | 4.3 | 9.6 | 0.00 | 0.00 | 0.00 | 41 | 1013.3 |
| 20260504150123 | 65 | 182 | 4.3 | 7.8 | 0.00 | 0.00 | 0.00 | 42 | 1013.5 |
| 20260504141318 | 63 | 185 | 3.5 | 5.2 | 0.00 | 0.00 | 0.00 | 47 | 1014.0 |
| 20260504141230 | 63 | 195 | 3.5 | 6.1 | 0.00 | 0.00 | 0.00 | 48 | 1013.9 |
| 20260504141126 | 63 | 224 | 4.3 | 7.8 | 0.00 | 0.00 | 0.00 | 47 | 1014.0 |
| 20260504141022 | 63 | 210 | 5.2 | 6.1 | 0.00 | 0.00 | 0.00 | 47 | 1013.7 |
| 20260504140917 | 63 | 200 | 4.3 | 7.8 | 0.00 | 0.00 | 0.00 | 49 | 1013.8 |
| 20260504140849 | 62 | 196 | 5.2 | 7.8 | 0.00 | 0.00 | 0.00 | 50 | 1013.9 |
| 20260504140724 | 63 | 196 | 5.2 | 7.8 | 0.00 | 0.00 | 0.00 | 49 | 1013.9 |
| 20260504140619 | 63 | 177 | 3.5 | 7.8 | 0.00 | 0.00 | 0.00 | 49 | 1013.7 |
| 20260504140515 | 63 | 204 | 5.2 | 7.8 | 0.00 | 0.00 | 0.00 | 50 | 1013.8 |
| 20260504140427 | 63 | 195 | 3.5 | 6.1 | 0.00 | 0.00 | 0.00 | 50 | 1013.8 |
| 20260504140343 | 62 | 227 | 2.6 | 4.3 | 0.00 | 0.00 | 0.00 | 49 | 1014.0 |
| 20260504140218 | 62 | 204 | 2.6 | 6.1 | 0.00 | 0.00 | 0.00 | 51 | 1013.8 |
| 20260504140150 | 62 | 195 | 4.3 | 7.8 | 0.00 | 0.00 | 0.00 | 50 | 1013.8 |
| 20260504130716 | 59 | 192 | 3.5 | 5.2 | 0.00 | 0.00 | 0.00 | 55 | 1014.5 |
| 20260504130628 | 59 | 197 | 3.5 | 5.2 | 0.00 | 0.00 | 0.00 | 55 | 1014.6 |
| 20260504130544 | 59 | 205 | 3.5 | 4.3 | 0.00 | 0.00 | 0.00 | 56 | 1014.5 |
| 20260504130419 | 59 | 190 | 4.3 | 6.1 | 0.00 | 0.00 | 0.00 | 55 | 1014.5 |
| 20260504130331 | 59 | 186 | 3.5 | 6.1 | 0.00 | 0.00 | 0.00 | 56 | 1014.7 |
| 20260504130226 | 59 | 221 | 1.7 | 7.8 | 0.00 | 0.00 | 0.00 | 55 | 1014.6 |
| 20260504130122 | 59 | 208 | 3.5 | 6.1 | 0.00 | 0.00 | 0.00 | 55 | 1014.5 |
| 20260504120219 | 53 | 196 | 2.6 | 2.6 | 0.00 | 0.00 | 0.00 | 65 | 1014.9 |
| 20260504120151 | 53 | 304 | 2.6 | 4.3 | 0.00 | 0.00 | 0.00 | 64 | 1015.0 |
| 20260504110629 | 47 | 210 | 2.6 | 3.5 | 0.00 | 0.00 | 0.00 | 70 | 1015.2 |
| 20260504110525 | 47 | 189 | 0.9 | 3.5 | 0.00 | 0.00 | 0.00 | 70 | 1015.2 |
| 20260504110420 | 47 | 181 | 1.7 | 2.6 | 0.00 | 0.00 | 0.00 | 71 | 1015.2 |
| 20260504110316 | 47 | 188 | 1.7 | 3.5 | 0.00 | 0.00 | 0.00 | 71 | 1015.2 |
| 20260504110227 | 47 | 200 | 0.9 | 2.6 | 0.00 | 0.00 | 0.00 | 71 | 1015.2 |
| 20260504110123 | 46 | 202 | 1.7 | 2.6 | 0.00 | 0.00 | 0.00 | 71 | 1015.1 |
| 20260504100516 | 42 | 37 | 0.0 | 1.7 | 0.00 | 0.00 | 0.00 | 79 | 1014.9 |
| 20260504100428 | 42 | 303 | 0.0 | 1.7 | 0.00 | 0.00 | 0.00 | 79 | 1015.1 |
| 20260504100324 | 41 | 71 | 0.9 | 1.7 | 0.00 | 0.00 | 0.00 | 80 | 1014.9 |
| 20260504100240 | 41 | 0.0 | 0.9 | 0.00 | 0.00 | 0.00 | 79 | 1015.1 | |
| 20260504100115 | 41 | 0.0 | 1.7 | 0.00 | 0.00 | 0.00 | 79 | 1015.0 | |
| 20260504090125 | 43 | 115 | 0.9 | 1.7 | 0.00 | 0.00 | 0.00 | 74 | 1014.8 |
| 20260504081916 | 45 | 176 | 0.9 | 1.7 | 0.00 | 0.00 | 0.00 | 65 | 1014.6 |
| 20260504081828 | 45 | 186 | 1.7 | 2.6 | 0.00 | 0.00 | 0.00 | 66 | 1014.7 |
| 20260504081724 | 45 | 197 | 1.7 | 3.5 | 0.00 | 0.00 | 0.00 | 66 | 1014.6 |
| 20260504081619 | 45 | 194 | 1.7 | 2.6 | 0.00 | 0.00 | 0.00 | 66 | 1014.5 |
| 20260504081515 | 45 | 190 | 0.9 | 2.6 | 0.00 | 0.00 | 0.00 | 66 | 1014.5 |
| 20260504081427 | 45 | 193 | 1.7 | 2.6 | 0.00 | 0.00 | 0.00 | 66 | 1014.5 |
| 20260504081322 | 45 | 199 | 1.7 | 2.6 | 0.00 | 0.00 | 0.00 | 66 | 1014.5 |
| 20260504081218 | 45 | 209 | 1.7 | 1.7 | 0.00 | 0.00 | 0.00 | 65 | 1014.4 |
| 20260504081130 | 45 | 205 | 1.7 | 1.7 | 0.00 | 0.00 | 0.00 | 66 | 1014.4 |
| 20260504081045 | 45 | 218 | 1.7 | 2.6 | 0.00 | 0.00 | 0.00 | 66 | 1014.3 |
| 20260504080921 | 45 | 178 | 0.9 | 2.6 | 0.00 | 0.00 | 0.00 | 66 | 1014.6 |
| 20260504080816 | 45 | 198 | 1.7 | 2.6 | 0.00 | 0.00 | 0.00 | 67 | 1014.6 |
| 20260504080728 | 45 | 188 | 1.7 | 2.6 | 0.00 | 0.00 | 0.00 | 68 | 1014.5 |
| 20260504080623 | 45 | 180 | 1.7 | 2.6 | 0.00 | 0.00 | 0.00 | 68 | 1014.5 |
| 20260504080519 | 45 | 182 | 1.7 | 2.6 | 0.00 | 0.00 | 0.00 | 68 | 1014.3 |
| 20260504080431 | 45 | 178 | 2.6 | 2.6 | 0.00 | 0.00 | 0.00 | 68 | 1014.4 |
| 20260504080326 | 46 | 198 | 1.7 | 3.5 | 0.00 | 0.00 | 0.00 | 68 | 1014.5 |
| 20260504080222 | 46 | 208 | 2.6 | 2.6 | 0.00 | 0.00 | 0.00 | 67 | 1014.5 |
| 20260504080117 | 46 | 185 | 1.7 | 2.6 | 0.00 | 0.00 | 0.00 | 67 | 1014.2 |
| 20260504070320 | 49 | 241 | 2.6 | 3.5 | 0.00 | 0.00 | 0.00 | 55 | 1014.3 |
| 20260504070231 | 49 | 169 | 0.9 | 1.7 | 0.00 | 0.00 | 0.00 | 55 | 1014.3 |
| 20260504070146 | 49 | 200 | 1.7 | 3.5 | 0.00 | 0.00 | 0.00 | 55 | 1014.2 |
| 20260504060224 | 49 | 183 | 1.7 | 4.3 | 0.00 | 0.00 | 0.00 | 55 | 1014.2 |
| 20260504060140 | 49 | 198 | 1.7 | 2.6 | 0.00 | 0.00 | 0.00 | 55 | 1014.1 |
| 20260504050723 | 49 | 206 | 1.7 | 2.6 | 0.00 | 0.00 | 0.00 | 55 | 1013.8 |
| 20260504050619 | 49 | 199 | 0.9 | 1.7 | 0.00 | 0.00 | 0.00 | 54 | 1013.9 |
| 20260504050531 | 49 | 202 | 0.9 | 2.6 | 0.00 | 0.00 | 0.00 | 54 | 1014.0 |
| 20260504050426 | 49 | 181 | 1.7 | 3.5 | 0.00 | 0.00 | 0.00 | 54 | 1014.1 |
| 20260504050322 | 49 | 247 | 0.9 | 1.7 | 0.00 | 0.00 | 0.00 | 54 | 1013.9 |
| 20260504050237 | 49 | 196 | 2.6 | 3.5 | 0.00 | 0.00 | 0.00 | 54 | 1013.9 |
| 20260504050149 | 49 | 202 | 1.7 | 2.6 | 0.00 | 0.00 | 0.00 | 55 | 1013.9 |
| 20260504050024 | 49 | 187 | 1.7 | 2.6 | 0.00 | 0.00 | 0.00 | 54 | 1013.8 |
| 20260504045920 | 49 | 224 | 0.9 | 2.6 | 0.00 | 0.00 | 0.00 | 54 | 1013.7 |
| 20260504045816 | 49 | 175 | 0.9 | 1.7 | 0.00 | 0.00 | 0.00 | 54 | 1013.8 |
| 20260504045727 | 49 | 195 | 1.7 | 3.5 | 0.00 | 0.00 | 0.00 | 54 | 1013.8 |
| 20260504045623 | 49 | 192 | 1.7 | 2.6 | 0.00 | 0.00 | 0.00 | 55 | 1013.7 |
| 20260504045518 | 49 | 203 | 1.7 | 2.6 | 0.00 | 0.00 | 0.00 | 54 | 1014.0 |
| 20260504045450 | 49 | 207 | 1.7 | 2.6 | 0.00 | 0.00 | 0.00 | 55 | 1013.9 |
| 20260504045326 | 49 | 175 | 1.7 | 1.7 | 0.00 | 0.00 | 0.00 | 55 | 1013.9 |
| 20260504045301 | 48 | 201 | 1.7 | 1.7 | 0.00 | 0.00 | 0.00 | 55 | 1013.9 |
| 20260504045117 | 48 | 190 | 1.7 | 2.6 | 0.00 | 0.00 | 0.00 | 55 | 1014.0 |
| 20260504045028 | 48 | 190 | 0.9 | 1.7 | 0.00 | 0.00 | 0.00 | 55 | 1013.9 |
| 20260504044924 | 48 | 184 | 1.7 | 2.6 | 0.00 | 0.00 | 0.00 | 56 | 1013.9 |
| 20260504044819 | 48 | 194 | 1.7 | 2.6 | 0.00 | 0.00 | 0.00 | 55 | 1013.8 |
| 20260504044715 | 48 | 203 | 1.7 | 2.6 | 0.00 | 0.00 | 0.00 | 56 | 1013.7 |
| 20260504044627 | 48 | 132 | 0.9 | 1.7 | 0.00 | 0.00 | 0.00 | 56 | 1013.9 |
| 20260504044522 | 48 | 191 | 0.9 | 1.7 | 0.00 | 0.00 | 0.00 | 56 | 1013.9 |
| 20260504044438 | 48 | 193 | 1.7 | 2.6 | 0.00 | 0.00 | 0.00 | 56 | 1013.9 |
| 20260504044329 | 48 | 210 | 0.9 | 0.9 | 0.00 | 0.00 | 0.00 | 56 | 1013.7 |
| 20260504044225 | 48 | 187 | 0.9 | 1.7 | 0.00 | 0.00 | 0.00 | 57 | 1013.9 |
| 20260504044120 | 48 | 154 | 0.9 | 1.7 | 0.00 | 0.00 | 0.00 | 57 | 1013.8 |
| 20260504044016 | 48 | 195 | 0.9 | 1.7 | 0.00 | 0.00 | 0.00 | 56 | 1013.9 |
| 20260504043928 | 48 | 0.0 | 0.9 | 0.00 | 0.00 | 0.00 | 56 | 1013.7 | |
| 20260504043824 | 48 | 0.0 | 0.9 | 0.00 | 0.00 | 0.00 | 56 | 1013.9 | |
| 20260504043719 | 48 | 183 | 0.0 | 1.7 | 0.00 | 0.00 | 0.00 | 56 | 1013.9 |
| 20260504043631 | 48 | 201 | 0.9 | 0.9 | 0.00 | 0.00 | 0.00 | 56 | 1013.9 |
| 20260504043526 | 48 | 187 | 0.9 | 2.6 | 0.00 | 0.00 | 0.00 | 56 | 1013.8 |
| 20260504043422 | 48 | 202 | 0.9 | 1.7 | 0.00 | 0.00 | 0.00 | 56 | 1013.9 |
| 20260504043318 | 48 | 175 | 0.0 | 0.9 | 0.00 | 0.00 | 0.00 | 56 | 1013.9 |
| 20260504043229 | 48 | 183 | 0.9 | 0.9 | 0.00 | 0.00 | 0.00 | 56 | 1014.0 |
| 20260504043125 | 48 | 195 | 0.9 | 1.7 | 0.00 | 0.00 | 0.00 | 56 | 1013.9 |
| 20260504043021 | 48 | 156 | 0.0 | 0.9 | 0.00 | 0.00 | 0.00 | 56 | 1014.0 |
| 20260504042916 | 48 | 183 | 0.0 | 1.7 | 0.00 | 0.00 | 0.00 | 56 | 1013.8 |
| 20260504042828 | 48 | 173 | 0.9 | 1.7 | 0.00 | 0.00 | 0.00 | 56 | 1013.7 |
| 20260504042724 | 48 | 185 | 0.9 | 1.7 | 0.00 | 0.00 | 0.00 | 56 | 1013.7 |
| 20260504042619 | 48 | 181 | 1.7 | 1.7 | 0.00 | 0.00 | 0.00 | 56 | 1013.8 |
| 20260504042531 | 48 | 190 | 0.9 | 2.6 | 0.00 | 0.00 | 0.00 | 56 | 1013.8 |
| 20260504042446 | 48 | 192 | 1.7 | 2.6 | 0.00 | 0.00 | 0.00 | 56 | 1013.7 |
| 20260504042322 | 48 | 184 | 1.7 | 2.6 | 0.00 | 0.00 | 0.00 | 56 | 1013.7 |
| 20260504042217 | 48 | 185 | 1.7 | 1.7 | 0.00 | 0.00 | 0.00 | 56 | 1013.8 |
| 20260504042129 | 48 | 182 | 1.7 | 1.7 | 0.00 | 0.00 | 0.00 | 56 | 1013.8 |
| 20260504042025 | 48 | 184 | 0.9 | 1.7 | 0.00 | 0.00 | 0.00 | 56 | 1013.8 |
| 20260504041920 | 48 | 179 | 0.9 | 1.7 | 0.00 | 0.00 | 0.00 | 56 | 1013.7 |
| 20260504041836 | 48 | 181 | 1.7 | 1.7 | 0.00 | 0.00 | 0.00 | 56 | 1013.5 |
| 20260504041728 | 48 | 179 | 1.7 | 1.7 | 0.00 | 0.00 | 0.00 | 56 | 1013.4 |
| 20260504041643 | 48 | 184 | 0.9 | 1.7 | 0.00 | 0.00 | 0.00 | 56 | 1013.8 |
| 20260504041539 | 48 | 167 | 0.9 | 1.7 | 0.00 | 0.00 | 0.00 | 56 | 1013.6 |
| 20260504041451 | 49 | 174 | 1.7 | 1.7 | 0.00 | 0.00 | 0.00 | 56 | 1013.8 |
| 20260504041346 | 49 | 196 | 1.7 | 1.7 | 0.00 | 0.00 | 0.00 | 56 | 1013.7 |
| 20260504041222 | 49 | 186 | 0.9 | 1.7 | 0.00 | 0.00 | 0.00 | 55 | 1013.5 |
| 20260504041118 | 49 | 176 | 1.7 | 2.6 | 0.00 | 0.00 | 0.00 | 56 | 1013.6 |
| 20260504041029 | 49 | 183 | 1.7 | 2.6 | 0.00 | 0.00 | 0.00 | 55 | 1013.6 |
| 20260504040925 | 49 | 181 | 0.9 | 1.7 | 0.00 | 0.00 | 0.00 | 56 | 1013.6 |
| 20260504040840 | 49 | 163 | 1.7 | 2.6 | 0.00 | 0.00 | 0.00 | 55 | 1013.5 |
| 20260504040716 | 49 | 186 | 1.7 | 1.7 | 0.00 | 0.00 | 0.00 | 55 | 1013.5 |
| 20260504040648 | 49 | 179 | 1.7 | 1.7 | 0.00 | 0.00 | 0.00 | 54 | 1013.7 |
| 20260504040523 | 49 | 193 | 0.9 | 1.7 | 0.00 | 0.00 | 0.00 | 55 | 1013.7 |
| 20260504040419 | 49 | 191 | 1.7 | 2.6 | 0.00 | 0.00 | 0.00 | 54 | 1013.6 |
| 20260504040330 | 49 | 200 | 1.7 | 2.6 | 0.00 | 0.00 | 0.00 | 54 | 1013.6 |
| 20260504040226 | 49 | 182 | 0.9 | 1.7 | 0.00 | 0.00 | 0.00 | 55 | 1013.6 |
| 20260504040122 | 49 | 184 | 1.7 | 1.7 | 0.00 | 0.00 | 0.00 | 55 | 1013.5 |
| 20260504040018 | 49 | 183 | 0.9 | 1.7 | 0.00 | 0.00 | 0.00 | 55 | 1013.4 |
| 20260504035949 | 49 | 181 | 1.7 | 1.7 | 0.00 | 0.00 | 0.00 | 55 | 1013.6 |
| 20260504035825 | 49 | 196 | 1.7 | 2.6 | 0.00 | 0.00 | 0.00 | 55 | 1013.7 |
| 20260504035720 | 49 | 189 | 1.7 | 1.7 | 0.00 | 0.00 | 0.00 | 55 | 1013.6 |
| 20260504035616 | 49 | 190 | 0.9 | 1.7 | 0.00 | 0.00 | 0.00 | 55 | 1013.6 |
| 20260504035528 | 49 | 177 | 0.9 | 1.7 | 0.00 | 0.00 | 0.00 | 55 | 1013.5 |
| 20260504035443 | 49 | 191 | 0.9 | 2.6 | 0.00 | 0.00 | 0.00 | 55 | 1013.6 |
| 20260504035319 | 49 | 174 | 1.7 | 2.6 | 0.00 | 0.00 | 0.00 | 55 | 1013.6 |
| 20260504035230 | 48 | 185 | 0.9 | 1.7 | 0.00 | 0.00 | 0.00 | 55 | 1013.6 |
| 20260504035146 | 48 | 182 | 0.9 | 1.7 | 0.00 | 0.00 | 0.00 | 55 | 1013.5 |
| 20260504035021 | 48 | 174 | 0.9 | 2.6 | 0.00 | 0.00 | 0.00 | 55 | 1013.7 |
| 20260504034917 | 48 | 191 | 1.7 | 1.7 | 0.00 | 0.00 | 0.00 | 56 | 1013.7 |
| 20260504034829 | 48 | 186 | 0.9 | 1.7 | 0.00 | 0.00 | 0.00 | 56 | 1013.6 |
| 20260504034724 | 48 | 171 | 0.9 | 1.7 | 0.00 | 0.00 | 0.00 | 56 | 1013.6 |
| 20260504034640 | 48 | 162 | 0.9 | 1.7 | 0.00 | 0.00 | 0.00 | 57 | 1013.5 |
| 20260504034516 | 48 | 179 | 0.9 | 1.7 | 0.00 | 0.00 | 0.00 | 56 | 1013.6 |
| 20260504034427 | 48 | 185 | 0.9 | 1.7 | 0.00 | 0.00 | 0.00 | 55 | 1013.6 |
| 20260504034322 | 48 | 190 | 1.7 | 2.6 | 0.00 | 0.00 | 0.00 | 56 | 1013.5 |
| 20260504034218 | 48 | 191 | 0.9 | 1.7 | 0.00 | 0.00 | 0.00 | 59 | 1013.6 |
| 20260504034130 | 48 | 172 | 0.9 | 2.6 | 0.00 | 0.00 | 0.00 | 58 | 1013.6 |
| 20260504034026 | 48 | 185 | 1.7 | 2.6 | 0.00 | 0.00 | 0.00 | 57 | 1013.5 |
| 20260504033921 | 48 | 181 | 0.9 | 1.7 | 0.00 | 0.00 | 0.00 | 58 | 1013.6 |
| 20260504033817 | 48 | 184 | 0.9 | 1.7 | 0.00 | 0.00 | 0.00 | 60 | 1013.5 |
| 20260504033729 | 48 | 161 | 0.9 | 1.7 | 0.00 | 0.00 | 0.00 | 62 | 1013.4 |
| 20260504033644 | 48 | 140 | 0.9 | 1.7 | 0.00 | 0.00 | 0.00 | 62 | 1013.4 |
| 20260504033520 | 48 | 112 | 0.9 | 1.7 | 0.00 | 0.00 | 0.00 | 59 | 1013.4 |
| 20260504033435 | 48 | 199 | 0.9 | 1.7 | 0.00 | 0.00 | 0.00 | 57 | 1013.4 |
| 20260504033327 | 48 | 166 | 0.0 | 1.7 | 0.00 | 0.00 | 0.00 | 57 | 1013.6 |
| 20260504033222 | 48 | 183 | 0.9 | 1.7 | 0.00 | 0.00 | 0.00 | 56 | 1013.5 |
| 20260504033118 | 48 | 192 | 0.9 | 1.7 | 0.00 | 0.00 | 0.00 | 56 | 1013.5 |
| 20260504033030 | 48 | 185 | 0.9 | 1.7 | 0.00 | 0.00 | 0.00 | 57 | 1013.4 |
| 20260504032925 | 49 | 166 | 0.9 | 1.7 | 0.00 | 0.00 | 0.00 | 59 | 1013.4 |
| 20260504032821 | 49 | 202 | 0.9 | 1.7 | 0.00 | 0.00 | 0.00 | 57 | 1013.4 |
| 20260504032716 | 49 | 172 | 1.7 | 1.7 | 0.00 | 0.00 | 0.00 | 56 | 1013.4 |
| 20260504032628 | 49 | 185 | 1.7 | 1.7 | 0.00 | 0.00 | 0.00 | 55 | 1013.5 |
| 20260504032544 | 49 | 187 | 1.7 | 1.7 | 0.00 | 0.00 | 0.00 | 55 | 1013.5 |
| 20260504032419 | 48 | 191 | 1.7 | 1.7 | 0.00 | 0.00 | 0.00 | 56 | 1013.4 |
| 20260504032411 | 48 | 179 | 0.9 | 1.7 | 0.00 | 0.00 | 0.00 | 55 | 1013.4 |
| 20260504032226 | 48 | 192 | 0.9 | 1.7 | 0.00 | 0.00 | 0.00 | 55 | 1013.4 |
| 20260504032122 | 48 | 190 | 1.7 | 3.5 | 0.00 | 0.00 | 0.00 | 56 | 1013.6 |
| 20260504032038 | 48 | 193 | 1.7 | 2.6 | 0.00 | 0.00 | 0.00 | 59 | 1013.5 |
| 20260504031929 | 48 | 155 | 0.9 | 1.7 | 0.00 | 0.00 | 0.00 | 62 | 1013.5 |
| 20260504031825 | 47 | 154 | 0.9 | 1.7 | 0.00 | 0.00 | 0.00 | 59 | 1013.2 |
| 20260504031720 | 47 | 191 | 0.9 | 1.7 | 0.00 | 0.00 | 0.00 | 58 | 1013.4 |
| 20260504031616 | 47 | 201 | 0.9 | 1.7 | 0.00 | 0.00 | 0.00 | 60 | 1013.4 |
| 20260504031528 | 47 | 186 | 0.9 | 1.7 | 0.00 | 0.00 | 0.00 | 62 | 1013.2 |
| 20260504031423 | 47 | 177 | 0.9 | 1.7 | 0.00 | 0.00 | 0.00 | 64 | 1013.3 |
| 20260504031338 | 47 | 151 | 0.9 | 1.7 | 0.00 | 0.00 | 0.00 | 65 | 1013.1 |
| 20260504031230 | 47 | 113 | 0.9 | 1.7 | 0.00 | 0.00 | 0.00 | 65 | 1013.4 |
| 20260504031126 | 47 | 128 | 0.9 | 1.7 | 0.00 | 0.00 | 0.00 | 65 | 1013.3 |
| 20260504031021 | 47 | 122 | 1.7 | 1.7 | 0.00 | 0.00 | 0.00 | 64 | 1013.3 |
| 20260504030917 | 47 | 116 | 1.7 | 1.7 | 0.00 | 0.00 | 0.00 | 64 | 1013.1 |
| 20260504030829 | 47 | 123 | 0.9 | 1.7 | 0.00 | 0.00 | 0.00 | 64 | 1013.3 |
| 20260504030725 | 47 | 136 | 0.9 | 1.7 | 0.00 | 0.00 | 0.00 | 64 | 1013.2 |
| 20260504030640 | 47 | 141 | 0.0 | 0.9 | 0.00 | 0.00 | 0.00 | 63 | 1013.6 |
| 20260504030516 | 47 | 103 | 0.9 | 1.7 | 0.00 | 0.00 | 0.00 | 64 | 1013.4 |
| 20260504030448 | 47 | 126 | 1.7 | 1.7 | 0.00 | 0.00 | 0.00 | 63 | 1013.3 |
| 20260504030323 | 48 | 131 | 0.9 | 1.7 | 0.00 | 0.00 | 0.00 | 63 | 1013.3 |
| 20260504030219 | 48 | 158 | 0.9 | 1.7 | 0.00 | 0.00 | 0.00 | 63 | 1013.3 |
| 20260504030131 | 48 | 109 | 0.9 | 1.7 | 0.00 | 0.00 | 0.00 | 63 | 1013.3 |
| 20260504030026 | 48 | 137 | 0.0 | 1.7 | 0.00 | 0.00 | 0.00 | 63 | 1013.5 |
| 20260504025921 | 48 | 119 | 0.9 | 1.7 | 0.00 | 0.00 | 0.00 | 62 | 1013.2 |
| 20260504025817 | 48 | 165 | 0.9 | 1.7 | 0.00 | 0.00 | 0.00 | 61 | 1013.4 |
| 20260504025729 | 48 | 0.0 | 0.9 | 0.00 | 0.00 | 0.00 | 62 | 1013.5 | |
| 20260504025625 | 48 | 150 | 0.0 | 1.7 | 0.00 | 0.00 | 0.00 | 63 | 1013.3 |
| 20260504025520 | 48 | 71 | 0.0 | 1.7 | 0.00 | 0.00 | 0.00 | 62 | 1013.2 |
| 20260504025416 | 48 | 124 | 0.9 | 1.7 | 0.00 | 0.00 | 0.00 | 62 | 1013.4 |
| 20260504025328 | 48 | 133 | 0.9 | 1.7 | 0.00 | 0.00 | 0.00 | 62 | 1013.2 |
| 20260504025223 | 48 | 141 | 0.9 | 1.7 | 0.00 | 0.00 | 0.00 | 61 | 1013.1 |
| 20260504025119 | 49 | 133 | 0.0 | 1.7 | 0.00 | 0.00 | 0.00 | 62 | 1013.2 |
| 20260504025051 | 49 | 135 | 0.9 | 1.7 | 0.00 | 0.00 | 0.00 | 62 | 1013.3 |
| 20260504024926 | 49 | 132 | 0.9 | 1.7 | 0.00 | 0.00 | 0.00 | 61 | 1013.2 |
| 20260504024822 | 49 | 115 | 0.0 | 0.9 | 0.00 | 0.00 | 0.00 | 60 | 1013.4 |
| 20260504024717 | 49 | 0.0 | 0.9 | 0.00 | 0.00 | 0.00 | 60 | 1013.3 | |
| 20260504024629 | 49 | 110 | 0.0 | 1.7 | 0.00 | 0.00 | 0.00 | 60 | 1013.4 |
| 20260504024525 | 50 | 131 | 0.9 | 1.7 | 0.00 | 0.00 | 0.00 | 59 | 1013.2 |
| 20260504024420 | 50 | 129 | 0.9 | 1.7 | 0.00 | 0.00 | 0.00 | 58 | 1013.4 |
| 20260504024316 | 50 | 142 | 0.0 | 1.7 | 0.00 | 0.00 | 0.00 | 57 | 1013.4 |
| 20260504024229 | 50 | 145 | 0.0 | 1.7 | 0.00 | 0.00 | 0.00 | 54 | 1013.3 |
| 20260504024143 | 50 | 177 | 0.9 | 1.7 | 0.00 | 0.00 | 0.00 | 53 | 1013.2 |
| 20260504024019 | 50 | 177 | 0.9 | 1.7 | 0.00 | 0.00 | 0.00 | 53 | 1013.4 |
| 20260504023930 | 50 | 176 | 1.7 | 1.7 | 0.00 | 0.00 | 0.00 | 54 | 1013.4 |
| 20260504023826 | 50 | 166 | 1.7 | 1.7 | 0.00 | 0.00 | 0.00 | 54 | 1013.3 |
| 20260504023722 | 50 | 174 | 0.9 | 1.7 | 0.00 | 0.00 | 0.00 | 52 | 1013.5 |
| 20260504023617 | 50 | 192 | 0.9 | 1.7 | 0.00 | 0.00 | 0.00 | 51 | 1013.2 |
| 20260504023529 | 49 | 191 | 0.9 | 1.7 | 0.00 | 0.00 | 0.00 | 51 | 1013.3 |
| 20260504023425 | 49 | 185 | 1.7 | 2.6 | 0.00 | 0.00 | 0.00 | 53 | 1013.4 |
| 20260504023320 | 49 | 192 | 0.9 | 1.7 | 0.00 | 0.00 | 0.00 | 54 | 1013.5 |
| 20260504023216 | 49 | 182 | 0.0 | 1.7 | 0.00 | 0.00 | 0.00 | 54 | 1013.3 |
| 20260504023128 | 49 | 0.0 | 1.7 | 0.00 | 0.00 | 0.00 | 54 | 1013.2 | |
| 20260504023023 | 49 | 0.0 | 1.7 | 0.00 | 0.00 | 0.00 | 55 | 1013.4 | |
| 20260504022919 | 49 | 132 | 0.9 | 1.7 | 0.00 | 0.00 | 0.00 | 54 | 1013.3 |
| 20260504022831 | 48 | 192 | 0.0 | 0.9 | 0.00 | 0.00 | 0.00 | 53 | 1013.4 |
| 20260504022726 | 48 | 239 | 0.0 | 0.9 | 0.00 | 0.00 | 0.00 | 55 | 1013.3 |
| 20260504022622 | 48 | 0.0 | 0.9 | 0.00 | 0.00 | 0.00 | 58 | 1013.2 | |
| 20260504022517 | 48 | 0.0 | 0.9 | 0.00 | 0.00 | 0.00 | 59 | 1013.2 | |
| 20260504022429 | 48 | 0.0 | 0.9 | 0.00 | 0.00 | 0.00 | 59 | 1013.1 | |
| 20260504022345 | 48 | 121 | 0.0 | 0.9 | 0.00 | 0.00 | 0.00 | 59 | 1013.1 |
| 20260504022220 | 48 | 123 | 0.0 | 1.7 | 0.00 | 0.00 | 0.00 | 59 | 1013.4 |
| 20260504022116 | 48 | 139 | 0.0 | 0.9 | 0.00 | 0.00 | 0.00 | 58 | 1013.4 |
| 20260504022027 | 48 | 122 | 0.0 | 0.9 | 0.00 | 0.00 | 0.00 | 58 | 1013.4 |
| 20260504021943 | 48 | 0.0 | 0.0 | 0.00 | 0.00 | 0.00 | 58 | 1013.4 | |
| 20260504021819 | 48 | 0.0 | 0.0 | 0.00 | 0.00 | 0.00 | 57 | 1013.2 | |
| 20260504021731 | 48 | 148 | 0.9 | 0.9 | 0.00 | 0.00 | 0.00 | 55 | 1013.3 |
| 20260504021646 | 48 | 186 | 0.0 | 0.9 | 0.00 | 0.00 | 0.00 | 54 | 1013.1 |
| 20260504021522 | 48 | 0.0 | 1.7 | 0.00 | 0.00 | 0.00 | 54 | 1013.3 | |
| 20260504021417 | 48 | 173 | 0.9 | 1.7 | 0.00 | 0.00 | 0.00 | 54 | 1013.4 |
| 20260504021329 | 48 | 0.0 | 1.7 | 0.00 | 0.00 | 0.00 | 56 | 1013.3 | |
| 20260504021225 | 48 | 0.0 | 0.9 | 0.00 | 0.00 | 0.00 | 57 | 1013.5 | |
| 20260504021120 | 48 | 0.0 | 0.9 | 0.00 | 0.00 | 0.00 | 58 | 1013.4 | |
| 20260504021016 | 48 | 0.0 | 0.9 | 0.00 | 0.00 | 0.00 | 57 | 1013.5 | |
| 20260504020948 | 48 | 134 | 0.0 | 0.9 | 0.00 | 0.00 | 0.00 | 57 | 1013.4 |
| 20260504020823 | 48 | 0.0 | 0.0 | 0.00 | 0.00 | 0.00 | 57 | 1013.4 | |
| 20260504020719 | 48 | 0.0 | 0.9 | 0.00 | 0.00 | 0.00 | 58 | 1013.4 | |
| 20260504020630 | 48 | 0.0 | 1.7 | 0.00 | 0.00 | 0.00 | 58 | 1013.4 | |
| 20260504020526 | 48 | 0.0 | 1.7 | 0.00 | 0.00 | 0.00 | 58 | 1013.4 | |
| 20260504020422 | 48 | 89 | 0.0 | 1.7 | 0.00 | 0.00 | 0.00 | 57 | 1013.3 |
| 20260504020317 | 48 | 57 | 0.0 | 0.9 | 0.00 | 0.00 | 0.00 | 56 | 1013.2 |
| 20260504020249 | 48 | 182 | 0.0 | 1.7 | 0.00 | 0.00 | 0.00 | 55 | 1013.4 |
| 20260504020125 | 48 | 0.0 | 0.9 | 0.00 | 0.00 | 0.00 | 56 | 1013.3 | |
| 20260504020020 | 48 | 0.0 | 0.9 | 0.00 | 0.00 | 0.00 | 57 | 1013.5 | |
| 20260504015916 | 48 | 0.0 | 0.9 | 0.00 | 0.00 | 0.00 | 57 | 1013.5 | |
| 20260504015828 | 48 | 0.0 | 0.9 | 0.00 | 0.00 | 0.00 | 57 | 1013.4 | |
| 20260504015723 | 48 | 0.0 | 0.9 | 0.00 | 0.00 | 0.00 | 59 | 1013.3 | |
| 20260504015639 | 48 | 0.0 | 0.0 | 0.00 | 0.00 | 0.00 | 59 | 1013.2 | |
| 20260504015530 | 48 | 0.0 | 0.9 | 0.00 | 0.00 | 0.00 | 59 | 1013.4 | |
| 20260504015426 | 48 | 0.0 | 0.9 | 0.00 | 0.00 | 0.00 | 59 | 1013.3 | |
| 20260504015322 | 48 | 125 | 0.0 | 1.7 | 0.00 | 0.00 | 0.00 | 59 | 1013.3 |
| 20260504015237 | 48 | 140 | 0.9 | 1.7 | 0.00 | 0.00 | 0.00 | 58 | 1013.5 |
| 20260504015129 | 48 | 84 | 0.9 | 1.7 | 0.00 | 0.00 | 0.00 | 58 | 1013.4 |
| 20260504015025 | 48 | 144 | 0.0 | 1.7 | 0.00 | 0.00 | 0.00 | 57 | 1013.4 |
| 20260504014920 | 48 | 0.0 | 0.9 | 0.00 | 0.00 | 0.00 | 58 | 1013.2 | |
| 20260504014816 | 48 | 0.0 | 0.0 | 0.00 | 0.00 | 0.00 | 58 | 1013.4 | |
| 20260504014728 | 48 | 0.0 | 0.0 | 0.00 | 0.00 | 0.00 | 58 | 1013.3 | |
| 20260504014623 | 48 | 0.0 | 0.0 | 0.00 | 0.00 | 0.00 | 57 | 1013.4 | |
| 20260504014519 | 48 | 0.0 | 0.9 | 0.00 | 0.00 | 0.00 | 57 | 1013.2 | |
| 20260504014430 | 48 | 108 | 0.0 | 0.9 | 0.00 | 0.00 | 0.00 | 56 | 1013.3 |
| 20260504014326 | 48 | 0.0 | 0.0 | 0.00 | 0.00 | 0.00 | 56 | 1013.2 | |
| 20260504014221 | 48 | 0.0 | 0.9 | 0.00 | 0.00 | 0.00 | 55 | 1013.1 | |
| 20260504014117 | 48 | 0.0 | 0.9 | 0.00 | 0.00 | 0.00 | 55 | 1013.3 | |
| 20260504014029 | 49 | 171 | 0.0 | 0.9 | 0.00 | 0.00 | 0.00 | 55 | 1013.3 |
| 20260504013924 | 49 | 165 | 0.9 | 1.7 | 0.00 | 0.00 | 0.00 | 54 | 1013.2 |
| 20260504013820 | 49 | 0.0 | 0.0 | 0.00 | 0.00 | 0.00 | 54 | 1013.5 | |
| 20260504013715 | 49 | 0.0 | 0.9 | 0.00 | 0.00 | 0.00 | 54 | 1013.3 | |
| 20260504013647 | 49 | 0.0 | 0.9 | 0.00 | 0.00 | 0.00 | 55 | 1013.2 | |
| 20260504013523 | 49 | 144 | 0.0 | 0.9 | 0.00 | 0.00 | 0.00 | 55 | 1013.0 |
| 20260504013418 | 49 | 0.0 | 0.9 | 0.00 | 0.00 | 0.00 | 55 | 1013.0 | |
| 20260504013350 | 49 | 0.0 | 0.9 | 0.00 | 0.00 | 0.00 | 56 | 1013.2 | |
| 20260504013246 | 49 | 0.0 | 0.9 | 0.00 | 0.00 | 0.00 | 56 | 1013.0 | |
| 20260504013121 | 49 | 97 | 0.0 | 0.9 | 0.00 | 0.00 | 0.00 | 56 | 1012.9 |
| 20260504013017 | 49 | 0.0 | 1.7 | 0.00 | 0.00 | 0.00 | 56 | 1013.0 | |
| 20260504012928 | 49 | 0.0 | 0.0 | 0.00 | 0.00 | 0.00 | 55 | 1013.0 | |
| 20260504012824 | 49 | 0.0 | 0.9 | 0.00 | 0.00 | 0.00 | 55 | 1013.0 | |
| 20260504012740 | 49 | 0.0 | 0.9 | 0.00 | 0.00 | 0.00 | 55 | 1013.0 | |
| 20260504012615 | 50 | 93 | 0.9 | 0.9 | 0.00 | 0.00 | 0.00 | 55 | 1013.0 |
| 20260504012527 | 50 | 67 | 0.9 | 1.7 | 0.00 | 0.00 | 0.00 | 54 | 1013.0 |
| 20260504012423 | 50 | 125 | 0.9 | 0.9 | 0.00 | 0.00 | 0.00 | 54 | 1013.0 |
| 20260504012318 | 50 | 0.0 | 0.0 | 0.00 | 0.00 | 0.00 | 53 | 1012.9 | |
| 20260504012250 | 50 | 0.0 | 0.0 | 0.00 | 0.00 | 0.00 | 53 | 1013.0 | |
| 20260504012125 | 50 | 0.0 | 0.0 | 0.00 | 0.00 | 0.00 | 52 | 1012.9 | |
| 20260504012021 | 50 | 0.0 | 0.0 | 0.00 | 0.00 | 0.00 | 52 | 1013.2 | |
| 20260504011917 | 50 | 0.0 | 0.0 | 0.00 | 0.00 | 0.00 | 53 | 1013.2 | |
| 20260504011828 | 50 | 0.0 | 0.9 | 0.00 | 0.00 | 0.00 | 54 | 1013.0 | |
| 20260504011724 | 50 | 135 | 0.0 | 0.9 | 0.00 | 0.00 | 0.00 | 54 | 1012.7 |
| 20260504011619 | 50 | 141 | 0.0 | 1.7 | 0.00 | 0.00 | 0.00 | 54 | 1012.8 |
| 20260504011515 | 50 | 145 | 0.0 | 0.9 | 0.00 | 0.00 | 0.00 | 53 | 1012.9 |
| 20260504011427 | 50 | 0.0 | 0.9 | 0.00 | 0.00 | 0.00 | 54 | 1012.8 | |
| 20260504011342 | 50 | 15 | 0.9 | 1.7 | 0.00 | 0.00 | 0.00 | 55 | 1012.8 |
| 20260504011258 | 50 | 33 | 0.9 | 0.9 | 0.00 | 0.00 | 0.00 | 55 | 1013.0 |
| 20260504011129 | 50 | 0.0 | 0.9 | 0.00 | 0.00 | 0.00 | 55 | 1012.9 | |
| 20260504011045 | 50 | 159 | 0.9 | 1.7 | 0.00 | 0.00 | 0.00 | 55 | 1012.9 |
| 20260504010921 | 50 | 164 | 0.9 | 1.7 | 0.00 | 0.00 | 0.00 | 56 | 1012.8 |
| 20260504010816 | 50 | 0.0 | 0.9 | 0.00 | 0.00 | 0.00 | 54 | 1013.1 | |
| 20260504010728 | 50 | 148 | 0.0 | 0.9 | 0.00 | 0.00 | 0.00 | 54 | 1012.7 |
| 20260504010624 | 50 | 171 | 0.9 | 1.7 | 0.00 | 0.00 | 0.00 | 53 | 1012.8 |
| 20260504010519 | 50 | 145 | 0.0 | 0.9 | 0.00 | 0.00 | 0.00 | 52 | 1012.7 |
| 20260504010431 | 50 | 0.0 | 0.9 | 0.00 | 0.00 | 0.00 | 52 | 1012.7 | |
| 20260504010326 | 50 | 0.0 | 0.9 | 0.00 | 0.00 | 0.00 | 51 | 1012.9 | |
| 20260504010222 | 51 | 157 | 0.9 | 1.7 | 0.00 | 0.00 | 0.00 | 51 | 1012.7 |
| 20260504010117 | 51 | 156 | 0.0 | 0.9 | 0.00 | 0.00 | 0.00 | 51 | 1012.7 |
| 20260504010029 | 51 | 0.0 | 0.9 | 0.00 | 0.00 | 0.00 | 51 | 1012.6 | |
| 20260504005925 | 51 | 65 | 0.0 | 1.7 | 0.00 | 0.00 | 0.00 | 51 | 1012.6 |
| 20260504005820 | 51 | 150 | 0.9 | 1.7 | 0.00 | 0.00 | 0.00 | 50 | 1012.8 |
| 20260504005716 | 51 | 143 | 0.0 | 1.7 | 0.00 | 0.00 | 0.00 | 50 | 1012.6 |
| 20260504005627 | 51 | 138 | 0.0 | 1.7 | 0.00 | 0.00 | 0.00 | 50 | 1012.7 |
| 20260504005523 | 51 | 64 | 0.0 | 0.9 | 0.00 | 0.00 | 0.00 | 50 | 1012.7 |
| 20260504005419 | 51 | 0.0 | 0.9 | 0.00 | 0.00 | 0.00 | 50 | 1012.6 | |
| 20260504005330 | 52 | 138 | 0.0 | 1.7 | 0.00 | 0.00 | 0.00 | 50 | 1012.7 |
| 20260504005246 | 52 | 141 | 0.9 | 1.7 | 0.00 | 0.00 | 0.00 | 49 | 1012.5 |
| 20260504005122 | 52 | 172 | 0.0 | 1.7 | 0.00 | 0.00 | 0.00 | 49 | 1012.7 |
| 20260504005017 | 52 | 0.0 | 0.9 | 0.00 | 0.00 | 0.00 | 49 | 1012.5 | |
| 20260504004929 | 52 | 127 | 0.9 | 1.7 | 0.00 | 0.00 | 0.00 | 49 | 1012.7 |
| 20260504004844 | 52 | 77 | 0.9 | 1.7 | 0.00 | 0.00 | 0.00 | 49 | 1012.5 |
| 20260504004720 | 52 | 120 | 1.7 | 1.7 | 0.00 | 0.00 | 0.00 | 49 | 1012.5 |
| 20260504004615 | 52 | 124 | 0.9 | 1.7 | 0.00 | 0.00 | 0.00 | 49 | 1012.7 |
| 20260504004527 | 52 | 131 | 0.9 | 1.7 | 0.00 | 0.00 | 0.00 | 49 | 1012.5 |
| 20260504004423 | 52 | 112 | 1.7 | 1.7 | 0.00 | 0.00 | 0.00 | 49 | 1012.6 |
| 20260504004338 | 53 | 129 | 0.9 | 1.7 | 0.00 | 0.00 | 0.00 | 49 | 1012.6 |
| 20260504004230 | 53 | 125 | 0.9 | 1.7 | 0.00 | 0.00 | 0.00 | 48 | 1012.5 |
| 20260504004126 | 53 | 130 | 0.9 | 1.7 | 0.00 | 0.00 | 0.00 | 48 | 1012.6 |
| 20260504004041 | 53 | 124 | 0.9 | 1.7 | 0.00 | 0.00 | 0.00 | 48 | 1012.5 |
| 20260504003917 | 53 | 113 | 0.9 | 0.9 | 0.00 | 0.00 | 0.00 | 47 | 1012.5 |
| 20260504003849 | 53 | 144 | 0.9 | 1.7 | 0.00 | 0.00 | 0.00 | 48 | 1012.5 |
| 20260504003724 | 53 | 164 | 0.9 | 1.7 | 0.00 | 0.00 | 0.00 | 47 | 1012.3 |
| 20260504003620 | 53 | 0.0 | 0.9 | 0.00 | 0.00 | 0.00 | 45 | 1012.6 | |
| 20260504003515 | 53 | 146 | 0.9 | 1.7 | 0.00 | 0.00 | 0.00 | 45 | 1012.5 |
| 20260504003427 | 54 | 150 | 0.9 | 1.7 | 0.00 | 0.00 | 0.00 | 45 | 1012.4 |
| 20260504003343 | 54 | 133 | 0.9 | 1.7 | 0.00 | 0.00 | 0.00 | 45 | 1012.5 |
| 20260504003218 | 54 | 0.0 | 0.9 | 0.00 | 0.00 | 0.00 | 44 | 1012.4 | |
| 20260504003210 | 54 | 151 | 0.9 | 1.7 | 0.00 | 0.00 | 0.00 | 44 | 1012.3 |
| 20260504003025 | 54 | 159 | 0.9 | 1.7 | 0.00 | 0.00 | 0.00 | 44 | 1012.4 |
| 20260504002921 | 54 | 123 | 0.9 | 1.7 | 0.00 | 0.00 | 0.00 | 43 | 1012.3 |
| 20260504002837 | 55 | 120 | 0.9 | 1.7 | 0.00 | 0.00 | 0.00 | 42 | 1012.3 |
| 20260504002728 | 55 | 91 | 0.0 | 0.9 | 0.00 | 0.00 | 0.00 | 38 | 1012.1 |
| 20260504002624 | 55 | 172 | 0.9 | 1.7 | 0.00 | 0.00 | 0.00 | 38 | 1012.3 |
| 20260504002519 | 55 | 164 | 0.9 | 0.9 | 0.00 | 0.00 | 0.00 | 38 | 1012.3 |
| 20260504002415 | 55 | 142 | 0.0 | 1.7 | 0.00 | 0.00 | 0.00 | 38 | 1012.2 |
| 20260504002327 | 55 | 191 | 0.9 | 1.7 | 0.00 | 0.00 | 0.00 | 38 | 1012.3 |
| 20260504002222 | 55 | 141 | 0.9 | 1.7 | 0.00 | 0.00 | 0.00 | 38 | 1012.2 |
| 20260504002118 | 55 | 172 | 0.0 | 0.9 | 0.00 | 0.00 | 0.00 | 38 | 1012.2 |
| 20260504002030 | 55 | 187 | 0.9 | 1.7 | 0.00 | 0.00 | 0.00 | 38 | 1012.1 |
| 20260504001945 | 55 | 0.0 | 0.9 | 0.00 | 0.00 | 0.00 | 38 | 1011.9 | |
| 20260504001820 | 55 | 0.0 | 0.9 | 0.00 | 0.00 | 0.00 | 38 | 1012.1 | |
| 20260504001716 | 55 | 199 | 0.9 | 1.7 | 0.00 | 0.00 | 0.00 | 38 | 1012.2 |
| 20260504001627 | 55 | 172 | 0.0 | 0.9 | 0.00 | 0.00 | 0.00 | 38 | 1012.0 |
| 20260504001522 | 55 | 196 | 1.7 | 2.6 | 0.00 | 0.00 | 0.00 | 38 | 1012.2 |
| 20260504001418 | 55 | 169 | 0.9 | 1.7 | 0.00 | 0.00 | 0.00 | 39 | 1012.2 |
| 20260504001349 | 55 | 196 | 0.9 | 1.7 | 0.00 | 0.00 | 0.00 | 38 | 1012.1 |
| 20260504001225 | 55 | 185 | 0.9 | 1.7 | 0.00 | 0.00 | 0.00 | 38 | 1012.0 |
| 20260504001121 | 55 | 0.0 | 0.9 | 0.00 | 0.00 | 0.00 | 39 | 1012.0 | |
| 20260504001036 | 55 | 141 | 0.0 | 1.7 | 0.00 | 0.00 | 0.00 | 39 | 1011.9 |
| 20260504000927 | 55 | 75 | 0.0 | 1.7 | 0.00 | 0.00 | 0.00 | 40 | 1011.9 |
| 20260504000823 | 55 | 0.0 | 1.7 | 0.00 | 0.00 | 0.00 | 41 | 1012.0 | |
| 20260504000718 | 55 | 130 | 1.7 | 1.7 | 0.00 | 0.00 | 0.00 | 40 | 1011.9 |
| 20260504000650 | 55 | 162 | 0.9 | 1.7 | 0.00 | 0.00 | 0.00 | 39 | 1012.0 |
| 20260504000526 | 55 | 152 | 1.7 | 1.7 | 0.00 | 0.00 | 0.00 | 41 | 1011.9 |
| 20260504000423 | 55 | 159 | 0.9 | 1.7 | 0.00 | 0.00 | 0.00 | 41 | 1011.8 |
| 20260504000317 | 55 | 144 | 0.9 | 1.7 | 0.00 | 0.00 | 0.00 | 41 | 1011.9 |
| 20260504000228 | 56 | 160 | 0.0 | 1.7 | 0.00 | 0.00 | 0.00 | 40 | 1012.0 |
| 20260504000124 | 56 | 138 | 0.9 | 1.7 | 0.00 | 0.00 | 0.00 | 40 | 1011.8 |
| 20260504000019 | 56 | 50 | 0.0 | 1.7 | 0.00 | 0.00 | 0.00 | 39 | 1011.9 |
| 20260503235915 | 56 | 108 | 0.9 | 1.7 | 0.00 | 0.00 | 0.00 | 39 | 1011.9 |
| 20260503235846 | 56 | 119 | 0.9 | 1.7 | 0.00 | 0.00 | 0.00 | 40 | 1011.7 |
| 20260503235722 | 56 | 133 | 0.9 | 1.7 | 0.00 | 0.00 | 0.00 | 40 | 1011.9 |
| 20260503235618 | 56 | 138 | 0.9 | 1.7 | 0.00 | 0.00 | 0.00 | 39 | 1011.9 |
| 20260503235610 | 56 | 139 | 0.9 | 2.6 | 0.00 | 0.00 | 0.00 | 38 | 1011.8 |
| 20260503235425 | 57 | 155 | 0.0 | 0.9 | 0.00 | 0.00 | 0.00 | 36 | 1011.8 |
| 20260503235321 | 57 | 0.0 | 0.0 | 0.00 | 0.00 | 0.00 | 36 | 1011.8 | |
| 20260503235216 | 57 | 173 | 0.0 | 1.7 | 0.00 | 0.00 | 0.00 | 35 | 1011.9 |
| 20260503235128 | 57 | 0.0 | 0.9 | 0.00 | 0.00 | 0.00 | 35 | 1011.8 | |
| 20260503235024 | 57 | 139 | 0.9 | 1.7 | 0.00 | 0.00 | 0.00 | 37 | 1011.7 |
| 20260503234919 | 57 | 141 | 0.9 | 1.7 | 0.00 | 0.00 | 0.00 | 36 | 1011.6 |
| 20260503234851 | 58 | 160 | 0.9 | 1.7 | 0.00 | 0.00 | 0.00 | 34 | 1011.6 |
| 20260503234726 | 58 | 214 | 1.7 | 2.6 | 0.00 | 0.00 | 0.00 | 33 | 1011.6 |
| 20260503234622 | 58 | 207 | 1.7 | 1.7 | 0.00 | 0.00 | 0.00 | 34 | 1011.8 |
| 20260503234538 | 58 | 205 | 0.9 | 2.6 | 0.00 | 0.00 | 0.00 | 34 | 1011.6 |
| 20260503234429 | 58 | 187 | 1.7 | 2.6 | 0.00 | 0.00 | 0.00 | 34 | 1011.8 |
| 20260503234405 | 58 | 179 | 1.7 | 2.6 | 0.00 | 0.00 | 0.00 | 34 | 1011.7 |
| 20260503234241 | 58 | 189 | 2.6 | 3.5 | 0.00 | 0.00 | 0.00 | 33 | 1011.8 |
| 20260503234116 | 58 | 199 | 0.0 | 2.6 | 0.00 | 0.00 | 0.00 | 33 | 1011.7 |
| 20260503234028 | 58 | 202 | 1.7 | 2.6 | 0.00 | 0.00 | 0.00 | 33 | 1011.7 |
| 20260503233923 | 58 | 202 | 1.7 | 2.6 | 0.00 | 0.00 | 0.00 | 34 | 1011.6 |
| 20260503233819 | 58 | 0.0 | 1.7 | 0.00 | 0.00 | 0.00 | 33 | 1011.7 | |
| 20260503233731 | 58 | 171 | 0.9 | 1.7 | 0.00 | 0.00 | 0.00 | 34 | 1011.8 |
| 20260503233726 | 58 | 188 | 0.9 | 1.7 | 0.00 | 0.00 | 0.00 | 33 | 1011.6 |
| 20260503233522 | 58 | 137 | 0.9 | 1.7 | 0.00 | 0.00 | 0.00 | 33 | 1011.6 |
| 20260503233417 | 58 | 172 | 0.9 | 1.7 | 0.00 | 0.00 | 0.00 | 33 | 1011.5 |
| 20260503233329 | 58 | 182 | 0.9 | 1.7 | 0.00 | 0.00 | 0.00 | 33 | 1011.5 |
| 20260503233224 | 58 | 191 | 2.6 | 3.5 | 0.00 | 0.00 | 0.00 | 32 | 1011.7 |
| 20260503233140 | 58 | 194 | 1.7 | 2.6 | 0.00 | 0.00 | 0.00 | 32 | 1011.6 |
| 20260503233016 | 58 | 185 | 0.9 | 1.7 | 0.00 | 0.00 | 0.00 | 33 | 1011.5 |
| 20260503232927 | 58 | 199 | 0.9 | 2.6 | 0.00 | 0.00 | 0.00 | 33 | 1011.5 |
| 20260503232823 | 58 | 190 | 1.7 | 4.3 | 0.00 | 0.00 | 0.00 | 32 | 1011.3 |
| 20260503232739 | 58 | 179 | 2.6 | 3.5 | 0.00 | 0.00 | 0.00 | 32 | 1011.4 |
| 20260503232630 | 58 | 172 | 0.9 | 1.7 | 0.00 | 0.00 | 0.00 | 32 | 1011.5 |
| 20260503232526 | 58 | 155 | 1.7 | 2.6 | 0.00 | 0.00 | 0.00 | 33 | 1011.6 |
| 20260503232421 | 58 | 62 | 0.9 | 1.7 | 0.00 | 0.00 | 0.00 | 33 | 1011.4 |
| 20260503232357 | 58 | 212 | 0.9 | 3.5 | 0.00 | 0.00 | 0.00 | 33 | 1011.6 |
| 20260503232229 | 58 | 198 | 1.7 | 2.6 | 0.00 | 0.00 | 0.00 | 33 | 1011.6 |
| 20260503232124 | 58 | 154 | 0.9 | 1.7 | 0.00 | 0.00 | 0.00 | 32 | 1011.7 |
| 20260503232020 | 58 | 204 | 0.9 | 2.6 | 0.00 | 0.00 | 0.00 | 33 | 1011.6 |
| 20260503231915 | 58 | 179 | 1.7 | 2.6 | 0.00 | 0.00 | 0.00 | 32 | 1011.7 |
| 20260503231847 | 58 | 207 | 2.6 | 4.3 | 0.00 | 0.00 | 0.00 | 32 | 1011.6 |
| 20260503231723 | 58 | 172 | 0.9 | 1.7 | 0.00 | 0.00 | 0.00 | 33 | 1011.5 |
| 20260503231618 | 58 | 179 | 0.9 | 1.7 | 0.00 | 0.00 | 0.00 | 32 | 1011.4 |
| 20260503231550 | 58 | 172 | 1.7 | 2.6 | 0.00 | 0.00 | 0.00 | 32 | 1011.5 |
| 20260503231425 | 58 | 184 | 1.7 | 1.7 | 0.00 | 0.00 | 0.00 | 33 | 1011.6 |
| 20260503231321 | 58 | 212 | 0.9 | 3.5 | 0.00 | 0.00 | 0.00 | 33 | 1011.4 |
| 20260503231216 | 58 | 235 | 1.7 | 3.5 | 0.00 | 0.00 | 0.00 | 33 | 1011.4 |
| 20260503231128 | 59 | 131 | 1.7 | 2.6 | 0.00 | 0.00 | 0.00 | 32 | 1011.6 |
| 20260503231023 | 59 | 82 | 0.9 | 1.7 | 0.00 | 0.00 | 0.00 | 33 | 1011.6 |
| 20260503230919 | 59 | 183 | 0.9 | 1.7 | 0.00 | 0.00 | 0.00 | 33 | 1011.4 |
| 20260503230831 | 59 | 182 | 1.7 | 3.5 | 0.00 | 0.00 | 0.00 | 32 | 1011.5 |
| 20260503230726 | 59 | 196 | 3.5 | 5.2 | 0.00 | 0.00 | 0.00 | 31 | 1011.5 |
| 20260503230622 | 59 | 194 | 2.6 | 3.5 | 0.00 | 0.00 | 0.00 | 31 | 1011.3 |
| 20260503230518 | 59 | 205 | 2.6 | 2.6 | 0.00 | 0.00 | 0.00 | 32 | 1011.4 |
| 20260503230429 | 59 | 184 | 2.6 | 3.5 | 0.00 | 0.00 | 0.00 | 31 | 1011.4 |
| 20260503230325 | 59 | 219 | 1.7 | 2.6 | 0.00 | 0.00 | 0.00 | 31 | 1011.3 |
| 20260503230221 | 59 | 200 | 1.7 | 3.5 | 0.00 | 0.00 | 0.00 | 31 | 1011.6 |
| 20260503230116 | 59 | 191 | 2.6 | 2.6 | 0.00 | 0.00 | 0.00 | 31 | 1011.5 |
| 20260503230028 | 59 | 212 | 2.6 | 3.5 | 0.00 | 0.00 | 0.00 | 31 | 1011.5 |
| 20260503225923 | 59 | 193 | 3.5 | 5.2 | 0.00 | 0.00 | 0.00 | 31 | 1011.4 |
| 20260503225819 | 59 | 214 | 3.5 | 4.3 | 0.00 | 0.00 | 0.00 | 31 | 1011.4 |
| 20260503225731 | 59 | 204 | 2.6 | 5.2 | 0.00 | 0.00 | 0.00 | 32 | 1011.2 |
| 20260503225626 | 59 | 220 | 1.7 | 2.6 | 0.00 | 0.00 | 0.00 | 32 | 1011.4 |
| 20260503225522 | 59 | 203 | 1.7 | 4.3 | 0.00 | 0.00 | 0.00 | 31 | 1011.6 |
| 20260503225417 | 59 | 201 | 4.3 | 6.1 | 0.00 | 0.00 | 0.00 | 30 | 1011.3 |
| 20260503225329 | 59 | 214 | 3.5 | 5.2 | 0.00 | 0.00 | 0.00 | 31 | 1011.5 |
| 20260503225225 | 59 | 203 | 4.3 | 8.7 | 0.00 | 0.00 | 0.00 | 31 | 1011.5 |
| 20260503225120 | 59 | 238 | 1.7 | 2.6 | 0.00 | 0.00 | 0.00 | 31 | 1011.3 |
| 20260503225016 | 60 | 193 | 2.6 | 5.2 | 0.00 | 0.00 | 0.00 | 31 | 1011.4 |
| 20260503224928 | 60 | 219 | 3.5 | 6.1 | 0.00 | 0.00 | 0.00 | 30 | 1011.3 |
| 20260503224843 | 60 | 190 | 3.5 | 7.0 | 0.00 | 0.00 | 0.00 | 30 | 1011.3 |
| 20260503224719 | 60 | 212 | 4.3 | 5.2 | 0.00 | 0.00 | 0.00 | 29 | 1011.3 |
| 20260503224630 | 60 | 201 | 2.6 | 5.2 | 0.00 | 0.00 | 0.00 | 29 | 1011.3 |
| 20260503224526 | 60 | 194 | 2.6 | 3.5 | 0.00 | 0.00 | 0.00 | 30 | 1011.2 |
| 20260503224441 | 60 | 10 | 0.9 | 2.6 | 0.00 | 0.00 | 0.00 | 30 | 1011.4 |
| 20260503224317 | 60 | 192 | 1.7 | 3.5 | 0.00 | 0.00 | 0.00 | 30 | 1011.3 |
| 20260503224229 | 60 | 128 | 0.9 | 1.7 | 0.00 | 0.00 | 0.00 | 30 | 1011.0 |
| 20260503224124 | 60 | 263 | 0.9 | 1.7 | 0.00 | 0.00 | 0.00 | 30 | 1011.2 |
| 20260503224020 | 60 | 193 | 0.9 | 2.6 | 0.00 | 0.00 | 0.00 | 29 | 1011.2 |
| 20260503223915 | 60 | 67 | 0.9 | 1.7 | 0.00 | 0.00 | 0.00 | 29 | 1011.3 |
| 20260503223847 | 60 | 8 | 2.6 | 5.2 | 0.00 | 0.00 | 0.00 | 28 | 1011.2 |
| 20260503223803 | 60 | 327 | 1.7 | 5.2 | 0.00 | 0.00 | 0.00 | 29 | 1011.2 |
| 20260503223618 | 60 | 221 | 1.7 | 3.5 | 0.00 | 0.00 | 0.00 | 29 | 1011.2 |
| 20260503223530 | 60 | 182 | 1.7 | 3.5 | 0.00 | 0.00 | 0.00 | 30 | 1011.1 |
| 20260503223426 | 60 | 180 | 1.7 | 2.6 | 0.00 | 0.00 | 0.00 | 29 | 1011.4 |
| 20260503223321 | 60 | 164 | 1.7 | 3.5 | 0.00 | 0.00 | 0.00 | 30 | 1011.3 |
| 20260503223217 | 60 | 224 | 2.6 | 3.5 | 0.00 | 0.00 | 0.00 | 30 | 1011.2 |
| 20260503223149 | 60 | 219 | 1.7 | 1.7 | 0.00 | 0.00 | 0.00 | 29 | 1011.0 |
| 20260503223024 | 60 | 28 | 1.7 | 2.6 | 0.00 | 0.00 | 0.00 | 30 | 1011.1 |
| 20260503222920 | 60 | 203 | 2.6 | 4.3 | 0.00 | 0.00 | 0.00 | 29 | 1011.3 |
| 20260503222815 | 60 | 183 | 2.6 | 4.3 | 0.00 | 0.00 | 0.00 | 30 | 1011.2 |
| 20260503222727 | 60 | 189 | 2.6 | 3.5 | 0.00 | 0.00 | 0.00 | 30 | 1011.2 |
| 20260503222622 | 60 | 164 | 1.7 | 5.2 | 0.00 | 0.00 | 0.00 | 30 | 1011.3 |
| 20260503222518 | 60 | 359 | 4.3 | 5.2 | 0.00 | 0.00 | 0.00 | 29 | 1011.0 |
| 20260503222430 | 60 | 340 | 1.7 | 1.7 | 0.00 | 0.00 | 0.00 | 29 | 1011.2 |
| 20260503222325 | 60 | 166 | 1.7 | 4.3 | 0.00 | 0.00 | 0.00 | 29 | 1011.2 |
| 20260503222221 | 60 | 324 | 3.5 | 5.2 | 0.00 | 0.00 | 0.00 | 28 | 1011.3 |
| 20260503222117 | 60 | 305 | 1.7 | 4.3 | 0.00 | 0.00 | 0.00 | 29 | 1011.2 |
| 20260503222048 | 60 | 350 | 3.5 | 4.3 | 0.00 | 0.00 | 0.00 | 29 | 1011.1 |
| 20260503221944 | 60 | 43 | 1.7 | 2.6 | 0.00 | 0.00 | 0.00 | 29 | 1011.1 |
| 20260503221819 | 60 | 311 | 0.9 | 4.3 | 0.00 | 0.00 | 0.00 | 28 | 1011.1 |
| 20260503221715 | 60 | 218 | 1.7 | 3.5 | 0.00 | 0.00 | 0.00 | 29 | 1011.2 |
| 20260503221627 | 60 | 323 | 3.5 | 5.2 | 0.00 | 0.00 | 0.00 | 28 | 1011.2 |
| 20260503221542 | 60 | 345 | 1.7 | 4.3 | 0.00 | 0.00 | 0.00 | 29 | 1011.0 |
| 20260503221518 | 60 | 351 | 1.7 | 3.5 | 0.00 | 0.00 | 0.00 | 29 | 1011.1 |
| 20260503221330 | 60 | 201 | 0.9 | 2.6 | 0.00 | 0.00 | 0.00 | 29 | 1011.1 |
| 20260503221225 | 60 | 14 | 0.9 | 2.6 | 0.00 | 0.00 | 0.00 | 28 | 1011.2 |
| 20260503221121 | 60 | 342 | 0.9 | 1.7 | 0.00 | 0.00 | 0.00 | 28 | 1010.9 |
| 20260503221016 | 60 | 52 | 2.6 | 3.5 | 0.00 | 0.00 | 0.00 | 27 | 1011.1 |
| 20260503220928 | 60 | 20 | 2.6 | 5.2 | 0.00 | 0.00 | 0.00 | 28 | 1011.1 |
| 20260503220824 | 60 | 1 | 1.7 | 3.5 | 0.00 | 0.00 | 0.00 | 29 | 1011.1 |
| 20260503220719 | 60 | 341 | 2.6 | 4.3 | 0.00 | 0.00 | 0.00 | 29 | 1011.1 |
| 20260503220651 | 60 | 9 | 1.7 | 3.5 | 0.00 | 0.00 | 0.00 | 29 | 1011.1 |
| 20260503220527 | 60 | 40 | 1.7 | 3.5 | 0.00 | 0.00 | 0.00 | 29 | 1011.1 |
| 20260503220422 | 60 | 326 | 3.5 | 6.1 | 0.00 | 0.00 | 0.00 | 28 | 1011.2 |
| 20260503220318 | 60 | 12 | 3.5 | 7.0 | 0.00 | 0.00 | 0.00 | 28 | 1011.1 |
| 20260503220229 | 60 | 348 | 4.3 | 7.0 | 0.00 | 0.00 | 0.00 | 28 | 1011.0 |
| 20260503220125 | 60 | 283 | 3.5 | 5.2 | 0.00 | 0.00 | 0.00 | 28 | 1011.3 |
| 20260503220020 | 60 | 303 | 2.6 | 4.3 | 0.00 | 0.00 | 0.00 | 28 | 1011.1 |
| 20260503215916 | 60 | 249 | 3.5 | 6.1 | 0.00 | 0.00 | 0.00 | 29 | 1011.2 |
| 20260503215828 | 60 | 117 | 0.9 | 1.7 | 0.00 | 0.00 | 0.00 | 29 | 1011.4 |
| 20260503215723 | 60 | 179 | 1.7 | 3.5 | 0.00 | 0.00 | 0.00 | 28 | 1011.2 |
| 20260503215619 | 60 | 264 | 0.9 | 3.5 | 0.00 | 0.00 | 0.00 | 29 | 1011.3 |
| 20260503215530 | 60 | 336 | 2.6 | 3.5 | 0.00 | 0.00 | 0.00 | 29 | 1011.4 |
| 20260503215426 | 60 | 65 | 1.7 | 2.6 | 0.00 | 0.00 | 0.00 | 29 | 1011.4 |
| 20260503215342 | 60 | 299 | 2.6 | 5.2 | 0.00 | 0.00 | 0.00 | 29 | 1011.3 |
| 20260503215217 | 60 | 333 | 2.6 | 6.1 | 0.00 | 0.00 | 0.00 | 27 | 1011.3 |
| 20260503215129 | 60 | 337 | 2.6 | 3.5 | 0.00 | 0.00 | 0.00 | 28 | 1011.2 |
| 20260503215104 | 60 | 321 | 4.3 | 7.8 | 0.00 | 0.00 | 0.00 | 28 | 1011.3 |
| 20260503214920 | 60 | 21 | 5.2 | 8.7 | 0.00 | 0.00 | 0.00 | 28 | 1011.6 |
| 20260503214816 | 60 | 8 | 3.5 | 7.0 | 0.00 | 0.00 | 0.00 | 28 | 1011.4 |
| 20260503214727 | 60 | 328 | 6.1 | 11.3 | 0.00 | 0.00 | 0.00 | 28 | 1011.1 |
| 20260503214623 | 60 | 333 | 5.2 | 8.7 | 0.00 | 0.00 | 0.00 | 28 | 1011.2 |
| 20260503214519 | 61 | 327 | 3.5 | 4.3 | 0.00 | 0.00 | 0.00 | 28 | 1011.2 |
| 20260503214430 | 61 | 351 | 3.5 | 7.0 | 0.00 | 0.00 | 0.00 | 28 | 1011.1 |
| 20260503214326 | 61 | 5 | 2.6 | 3.5 | 0.00 | 0.00 | 0.00 | 29 | 1011.2 |
| 20260503214221 | 60 | 124 | 1.7 | 2.6 | 0.00 | 0.00 | 0.00 | 29 | 1011.1 |
| 20260503214117 | 60 | 34 | 1.7 | 2.6 | 0.00 | 0.00 | 0.00 | 29 | 1011.1 |
| 20260503214029 | 60 | 330 | 2.6 | 4.3 | 0.00 | 0.00 | 0.00 | 29 | 1011.2 |
| 20260503213924 | 60 | 359 | 1.7 | 4.3 | 0.00 | 0.00 | 0.00 | 29 | 1011.3 |
| 20260503213840 | 60 | 88 | 0.0 | 3.5 | 0.00 | 0.00 | 0.00 | 29 | 1011.1 |
| 20260503213735 | 60 | 214 | 1.7 | 5.2 | 0.00 | 0.00 | 0.00 | 30 | 1011.2 |
| 20260503213627 | 60 | 330 | 2.6 | 4.3 | 0.00 | 0.00 | 0.00 | 30 | 1011.0 |
| 20260503213522 | 60 | 359 | 3.5 | 5.2 | 0.00 | 0.00 | 0.00 | 29 | 1011.2 |
| 20260503213418 | 60 | 297 | 4.3 | 7.0 | 0.00 | 0.00 | 0.00 | 28 | 1011.0 |
| 20260503213330 | 60 | 28 | 4.3 | 5.2 | 0.00 | 0.00 | 0.00 | 28 | 1011.4 |
| 20260503213225 | 60 | 318 | 2.6 | 5.2 | 0.00 | 0.00 | 0.00 | 28 | 1011.2 |
| 20260503213121 | 60 | 137 | 1.7 | 3.5 | 0.00 | 0.00 | 0.00 | 28 | 1011.2 |
| 20260503213036 | 60 | 281 | 2.6 | 3.5 | 0.00 | 0.00 | 0.00 | 29 | 1011.3 |
| 20260503212928 | 60 | 349 | 3.5 | 7.0 | 0.00 | 0.00 | 0.00 | 29 | 1011.1 |
| 20260503212824 | 60 | 357 | 2.6 | 7.8 | 0.00 | 0.00 | 0.00 | 28 | 1011.3 |
| 20260503212740 | 60 | 336 | 3.5 | 11.3 | 0.00 | 0.00 | 0.00 | 28 | 1011.5 |
| 20260503212615 | 60 | 337 | 7.0 | 11.3 | 0.00 | 0.00 | 0.00 | 28 | 1011.4 |
| 20260503212527 | 60 | 307 | 3.5 | 6.1 | 0.00 | 0.00 | 0.00 | 29 | 1011.0 |
| 20260503212422 | 60 | 268 | 2.6 | 4.3 | 0.00 | 0.00 | 0.00 | 29 | 1011.2 |
| 20260503212318 | 60 | 87 | 1.7 | 4.3 | 0.00 | 0.00 | 0.00 | 29 | 1011.3 |
| 20260503212229 | 60 | 318 | 2.6 | 5.2 | 0.00 | 0.00 | 0.00 | 28 | 1011.2 |
| 20260503212125 | 60 | 333 | 5.2 | 7.8 | 0.00 | 0.00 | 0.00 | 28 | 1011.4 |
| 20260503212021 | 60 | 332 | 2.6 | 4.3 | 0.00 | 0.00 | 0.00 | 28 | 1011.0 |
| 20260503211916 | 60 | 321 | 3.5 | 5.2 | 0.00 | 0.00 | 0.00 | 29 | 1011.2 |
| 20260503211828 | 60 | 319 | 3.5 | 7.8 | 0.00 | 0.00 | 0.00 | 28 | 1011.2 |
| 20260503211724 | 60 | 347 | 4.3 | 9.6 | 0.00 | 0.00 | 0.00 | 28 | 1011.2 |
| 20260503211619 | 60 | 335 | 3.5 | 4.3 | 0.00 | 0.00 | 0.00 | 29 | 1011.2 |
| 20260503211531 | 60 | 359 | 5.2 | 8.7 | 0.00 | 0.00 | 0.00 | 29 | 1011.2 |
| 20260503211447 | 60 | 316 | 2.6 | 5.2 | 0.00 | 0.00 | 0.00 | 29 | 1011.1 |
| 20260503211322 | 60 | 203 | 1.7 | 2.6 | 0.00 | 0.00 | 0.00 | 30 | 1011.1 |
| 20260503211218 | 60 | 195 | 2.6 | 6.1 | 0.00 | 0.00 | 0.00 | 29 | 1011.1 |
| 20260503211150 | 60 | 348 | 6.1 | 11.3 | 0.00 | 0.00 | 0.00 | 28 | 1011.3 |
| 20260503211025 | 60 | 37 | 2.6 | 4.3 | 0.00 | 0.00 | 0.00 | 29 | 1011.2 |
| 20260503210921 | 60 | 314 | 6.1 | 10.4 | 0.00 | 0.00 | 0.00 | 28 | 1011.1 |
| 20260503210816 | 60 | 334 | 3.5 | 7.0 | 0.00 | 0.00 | 0.00 | 28 | 1011.3 |
| 20260503210728 | 60 | 336 | 5.2 | 7.8 | 0.00 | 0.00 | 0.00 | 29 | 1011.2 |
| 20260503210623 | 60 | 343 | 3.5 | 6.1 | 0.00 | 0.00 | 0.00 | 28 | 1011.2 |
| 20260503210519 | 60 | 337 | 5.2 | 8.7 | 0.00 | 0.00 | 0.00 | 28 | 1011.2 |
| 20260503210430 | 60 | 332 | 4.3 | 8.7 | 0.00 | 0.00 | 0.00 | 29 | 1011.2 |
| 20260503210346 | 60 | 335 | 5.2 | 9.6 | 0.00 | 0.00 | 0.00 | 28 | 1011.3 |
| 20260503210221 | 60 | 257 | 3.5 | 6.1 | 0.00 | 0.00 | 0.00 | 29 | 1011.2 |
| 20260503210117 | 60 | 32 | 4.3 | 5.2 | 0.00 | 0.00 | 0.00 | 29 | 1011.3 |
| 20260503210029 | 60 | 329 | 4.3 | 6.1 | 0.00 | 0.00 | 0.00 | 28 | 1011.3 |
| 20260503205924 | 60 | 273 | 2.6 | 4.3 | 0.00 | 0.00 | 0.00 | 29 | 1011.3 |
| 20260503205820 | 60 | 324 | 4.3 | 6.1 | 0.00 | 0.00 | 0.00 | 28 | 1011.3 |
| 20260503205715 | 60 | 318 | 5.2 | 11.3 | 0.00 | 0.00 | 0.00 | 28 | 1011.2 |
| 20260503205627 | 60 | 14 | 3.5 | 7.8 | 0.00 | 0.00 | 0.00 | 28 | 1011.2 |
| 20260503205523 | 60 | 328 | 5.2 | 10.4 | 0.00 | 0.00 | 0.00 | 28 | 1011.2 |
| 20260503205518 | 60 | 321 | 3.5 | 7.0 | 0.00 | 0.00 | 0.00 | 28 | 1010.9 |
| 20260503205330 | 60 | 357 | 4.3 | 10.4 | 0.00 | 0.00 | 0.00 | 28 | 1011.2 |
| 20260503205225 | 60 | 15 | 4.3 | 7.8 | 0.00 | 0.00 | 0.00 | 29 | 1011.1 |
| 20260503205121 | 60 | 75 | 2.6 | 4.3 | 0.00 | 0.00 | 0.00 | 29 | 1011.1 |
| 20260503205016 | 60 | 332 | 4.3 | 12.2 | 0.00 | 0.00 | 0.00 | 29 | 1011.2 |
| 20260503204928 | 60 | 326 | 7.8 | 14.8 | 0.00 | 0.00 | 0.00 | 28 | 1011.1 |
| 20260503204824 | 60 | 305 | 3.5 | 11.3 | 0.00 | 0.00 | 0.00 | 29 | 1011.1 |
| 20260503204720 | 60 | 204 | 1.7 | 2.6 | 0.00 | 0.00 | 0.00 | 30 | 1010.9 |
| 20260503204615 | 60 | 358 | 2.6 | 4.3 | 0.00 | 0.00 | 0.00 | 30 | 1010.9 |
| 20260503204547 | 60 | 147 | 0.9 | 2.6 | 0.00 | 0.00 | 0.00 | 30 | 1010.8 |
| 20260503204423 | 60 | 118 | 1.7 | 3.5 | 0.00 | 0.00 | 0.00 | 30 | 1011.0 |
| 20260503204318 | 60 | 41 | 1.7 | 1.7 | 0.00 | 0.00 | 0.00 | 30 | 1011.1 |
| 20260503204230 | 60 | 227 | 2.6 | 6.1 | 0.00 | 0.00 | 0.00 | 30 | 1011.2 |
| 20260503204145 | 60 | 351 | 3.5 | 7.0 | 0.00 | 0.00 | 0.00 | 29 | 1011.0 |
| 20260503204021 | 60 | 9 | 4.3 | 6.1 | 0.00 | 0.00 | 0.00 | 29 | 1011.2 |
| 20260503203917 | 59 | 2 | 1.7 | 4.3 | 0.00 | 0.00 | 0.00 | 29 | 1011.1 |
| 20260503203828 | 59 | 355 | 2.6 | 4.3 | 0.00 | 0.00 | 0.00 | 29 | 1011.2 |
| 20260503203724 | 60 | 296 | 5.2 | 11.3 | 0.00 | 0.00 | 0.00 | 29 | 1011.3 |
| 20260503203620 | 60 | 6 | 3.5 | 5.2 | 0.00 | 0.00 | 0.00 | 29 | 1011.0 |
| 20260503203535 | 60 | 348 | 4.3 | 8.7 | 0.00 | 0.00 | 0.00 | 29 | 1011.2 |
| 20260503203427 | 60 | 330 | 5.2 | 9.6 | 0.00 | 0.00 | 0.00 | 29 | 1011.1 |
| 20260503203322 | 60 | 345 | 4.3 | 9.6 | 0.00 | 0.00 | 0.00 | 29 | 1011.2 |
| 20260503203238 | 60 | 320 | 4.3 | 10.4 | 0.00 | 0.00 | 0.00 | 29 | 1011.0 |
| 20260503203130 | 60 | 312 | 4.3 | 7.0 | 0.00 | 0.00 | 0.00 | 29 | 1011.1 |
| 20260503203025 | 60 | 316 | 3.5 | 7.8 | 0.00 | 0.00 | 0.00 | 30 | 1011.2 |
| 20260503202921 | 60 | 309 | 5.2 | 10.4 | 0.00 | 0.00 | 0.00 | 30 | 1011.4 |
| 20260503202816 | 60 | 352 | 3.5 | 6.1 | 0.00 | 0.00 | 0.00 | 30 | 1011.3 |
| 20260503202728 | 60 | 339 | 3.5 | 6.1 | 0.00 | 0.00 | 0.00 | 30 | 1011.3 |
| 20260503202624 | 60 | 342 | 4.3 | 7.8 | 0.00 | 0.00 | 0.00 | 30 | 1011.4 |
| 20260503202519 | 60 | 311 | 2.6 | 5.2 | 0.00 | 0.00 | 0.00 | 30 | 1011.3 |
| 20260503202415 | 60 | 11 | 0.9 | 2.6 | 0.00 | 0.00 | 0.00 | 30 | 1011.2 |
| 20260503202327 | 60 | 233 | 2.6 | 9.6 | 0.00 | 0.00 | 0.00 | 30 | 1011.1 |
| 20260503202242 | 60 | 330 | 5.2 | 13.0 | 0.00 | 0.00 | 0.00 | 29 | 1011.2 |
| 20260503202118 | 60 | 338 | 5.2 | 13.0 | 0.00 | 0.00 | 0.00 | 29 | 1011.2 |
| 20260503202030 | 60 | 344 | 1.7 | 5.2 | 0.00 | 0.00 | 0.00 | 30 | 1011.5 |
| 20260503201925 | 60 | 291 | 2.6 | 6.1 | 0.00 | 0.00 | 0.00 | 30 | 1011.5 |
| 20260503201821 | 60 | 289 | 2.6 | 4.3 | 0.00 | 0.00 | 0.00 | 31 | 1011.4 |
| 20260503201716 | 59 | 333 | 1.7 | 4.3 | 0.00 | 0.00 | 0.00 | 31 | 1011.5 |
| 20260503201628 | 59 | 303 | 5.2 | 10.4 | 0.00 | 0.00 | 0.00 | 30 | 1011.3 |
| 20260503201524 | 59 | 348 | 3.5 | 7.0 | 0.00 | 0.00 | 0.00 | 30 | 1011.3 |
| 20260503201439 | 59 | 355 | 3.5 | 7.0 | 0.00 | 0.00 | 0.00 | 30 | 1011.5 |
| 20260503201331 | 59 | 38 | 3.5 | 7.0 | 0.00 | 0.00 | 0.00 | 31 | 1011.4 |
| 20260503201226 | 59 | 345 | 4.3 | 8.7 | 0.00 | 0.00 | 0.00 | 30 | 1011.3 |
| 20260503201122 | 59 | 10 | 4.3 | 7.0 | 0.00 | 0.00 | 0.00 | 30 | 1011.1 |
| 20260503201018 | 59 | 345 | 5.2 | 7.8 | 0.00 | 0.00 | 0.00 | 30 | 1011.2 |
| 20260503200929 | 59 | 46 | 3.5 | 5.2 | 0.00 | 0.00 | 0.00 | 30 | 1011.5 |
| 20260503200845 | 59 | 355 | 5.2 | 11.3 | 0.00 | 0.00 | 0.00 | 30 | 1011.5 |
| 20260503200801 | 60 | 327 | 4.3 | 11.3 | 0.00 | 0.00 | 0.00 | 30 | 1011.4 |
| 20260503200616 | 60 | 18 | 1.7 | 3.5 | 0.00 | 0.00 | 0.00 | 31 | 1011.5 |
| 20260503200528 | 60 | 3 | 2.6 | 4.3 | 0.00 | 0.00 | 0.00 | 30 | 1011.4 |
| 20260503200423 | 60 | 44 | 2.6 | 4.3 | 0.00 | 0.00 | 0.00 | 31 | 1011.2 |
| 20260503200319 | 60 | 9 | 2.6 | 4.3 | 0.00 | 0.00 | 0.00 | 30 | 1011.4 |
| 20260503200231 | 60 | 272 | 1.7 | 3.5 | 0.00 | 0.00 | 0.00 | 31 | 1011.4 |
| 20260503200126 | 60 | 353 | 0.9 | 3.5 | 0.00 | 0.00 | 0.00 | 31 | 1011.4 |
| 20260503200022 | 60 | 329 | 2.6 | 3.5 | 0.00 | 0.00 | 0.00 | 30 | 1011.4 |
| 20260503195918 | 60 | 284 | 1.7 | 6.1 | 0.00 | 0.00 | 0.00 | 30 | 1011.5 |
| 20260503195829 | 60 | 341 | 3.5 | 8.7 | 0.00 | 0.00 | 0.00 | 30 | 1011.5 |
| 20260503195725 | 60 | 340 | 3.5 | 10.4 | 0.00 | 0.00 | 0.00 | 29 | 1011.6 |
| 20260503195620 | 60 | 332 | 3.5 | 6.1 | 0.00 | 0.00 | 0.00 | 32 | 1011.5 |
| 20260503195535 | 60 | 359 | 2.6 | 6.1 | 0.00 | 0.00 | 0.00 | 31 | 1011.5 |
| 20260503195427 | 60 | 342 | 3.5 | 7.8 | 0.00 | 0.00 | 0.00 | 31 | 1011.4 |
| 20260503195323 | 60 | 338 | 5.2 | 9.6 | 0.00 | 0.00 | 0.00 | 31 | 1011.4 |
| 20260503195219 | 60 | 32 | 4.3 | 5.2 | 0.00 | 0.00 | 0.00 | 30 | 1011.4 |
| 20260503195130 | 60 | 269 | 3.5 | 6.1 | 0.00 | 0.00 | 0.00 | 31 | 1011.5 |
| 20260503195106 | 60 | 257 | 3.5 | 7.0 | 0.00 | 0.00 | 0.00 | 30 | 1011.6 |